| time (UTC) | temp F | wind direction | speed knots | gust knots | rain 1hr in | rain 24hr in | rain mn in | humidity % | barometer mb |
| 20260503192733 | 59 | 138 | 1.7 | 0.0 | 0.00 | 0.00 | 0.00 | 32 | 1012.3 |
| 20260503192631 | 59 | 311 | 2.6 | 0.0 | 0.00 | 0.00 | 0.00 | 31 | 1012.3 |
| 20260503192537 | 59 | 303 | 2.6 | 0.0 | 0.00 | 0.00 | 0.00 | 31 | 1012.3 |
| 20260503192434 | 59 | 257 | 1.7 | 0.0 | 0.00 | 0.00 | 0.00 | 32 | 1012.3 |
| 20260503192355 | 59 | 334 | 1.7 | 0.0 | 0.00 | 0.00 | 0.00 | 32 | 1012.3 |
| 20260503192239 | 59 | 286 | 2.6 | 0.0 | 0.00 | 0.00 | 0.00 | 32 | 1012.3 |
| 20260503192140 | 59 | 309 | 2.6 | 0.0 | 0.00 | 0.00 | 0.00 | 31 | 1012.3 |
| 20260503192039 | 59 | 286 | 2.6 | 0.0 | 0.00 | 0.00 | 0.00 | 32 | 1012.3 |
| 20260503191938 | 58 | 257 | 1.7 | 0.0 | 0.00 | 0.00 | 0.00 | 31 | 1012.3 |
| 20260503191836 | 58 | 294 | 1.7 | 0.0 | 0.00 | 0.00 | 0.00 | 31 | 1012.3 |
| 20260503191740 | 59 | 294 | 1.7 | 0.0 | 0.00 | 0.00 | 0.00 | 31 | 1012.3 |
| 20260503191642 | 59 | 222 | 1.7 | 0.0 | 0.00 | 0.00 | 0.00 | 32 | 1012.3 |
| 20260503191604 | 59 | 3 | 0.9 | 0.0 | 0.00 | 0.00 | 0.00 | 31 | 1012.3 |
| 20260503191504 | 59 | 244 | 0.9 | 0.0 | 0.00 | 0.00 | 0.00 | 31 | 1012.3 |
| 20260503191344 | 59 | 323 | 0.9 | 0.0 | 0.00 | 0.00 | 0.00 | 31 | 1012.5 |
| 20260503191243 | 59 | 294 | 0.9 | 0.0 | 0.00 | 0.00 | 0.00 | 32 | 1012.5 |
| 20260503191126 | 59 | 253 | 1.7 | 0.0 | 0.00 | 0.00 | 0.00 | 33 | 1012.5 |
| 20260503191028 | 59 | 285 | 1.7 | 0.0 | 0.00 | 0.00 | 0.00 | 34 | 1012.5 |
| 20260503190928 | 58 | 281 | 1.7 | 0.0 | 0.00 | 0.00 | 0.00 | 34 | 1012.5 |
| 20260503190829 | 58 | 50 | 1.7 | 0.0 | 0.00 | 0.00 | 0.00 | 33 | 1012.5 |
| 20260503190730 | 58 | 319 | 2.6 | 0.0 | 0.00 | 0.00 | 0.00 | 32 | 1012.5 |
| 20260503190634 | 58 | 350 | 1.7 | 0.0 | 0.00 | 0.00 | 0.00 | 32 | 1012.5 |
| 20260503190536 | 58 | 338 | 2.6 | 0.0 | 0.00 | 0.00 | 0.00 | 32 | 1012.5 |
| 20260503190458 | 58 | 355 | 2.6 | 0.0 | 0.00 | 0.00 | 0.00 | 33 | 1012.5 |
| 20260503190339 | 58 | 14 | 2.6 | 0.0 | 0.00 | 0.00 | 0.00 | 32 | 1012.5 |
| 20260503190241 | 58 | 294 | 2.6 | 0.0 | 0.00 | 0.00 | 0.00 | 33 | 1012.5 |
| 20260503190146 | 58 | 173 | 1.7 | 0.0 | 0.00 | 0.00 | 0.00 | 32 | 1012.5 |
| 20260503190025 | 58 | 274 | 1.7 | 0.0 | 0.00 | 0.00 | 0.00 | 32 | 1012.5 |
| 20260503185928 | 58 | 251 | 1.7 | 0.0 | 0.00 | 0.00 | 0.00 | 32 | 1012.5 |
| 20260503185827 | 58 | 219 | 1.7 | 0.0 | 0.00 | 0.00 | 0.00 | 32 | 1012.6 |
| 20260503185729 | 58 | 230 | 2.6 | 0.0 | 0.00 | 0.00 | 0.00 | 33 | 1012.6 |
| 20260503185628 | 58 | 285 | 2.6 | 0.0 | 0.00 | 0.00 | 0.00 | 32 | 1012.6 |
| 20260503185535 | 58 | 211 | 3.5 | 0.0 | 0.00 | 0.00 | 0.00 | 32 | 1012.6 |
| 20260503185432 | 58 | 249 | 3.5 | 0.0 | 0.00 | 0.00 | 0.00 | 33 | 1012.6 |
| 20260503185334 | 57 | 248 | 3.5 | 0.0 | 0.00 | 0.00 | 0.00 | 34 | 1012.6 |
| 20260503185233 | 57 | 270 | 2.6 | 0.0 | 0.00 | 0.00 | 0.00 | 34 | 1012.6 |
| 20260503185134 | 57 | 209 | 3.5 | 0.0 | 0.00 | 0.00 | 0.00 | 33 | 1012.6 |
| 20260503185032 | 57 | 318 | 2.6 | 0.0 | 0.00 | 0.00 | 0.00 | 34 | 1012.6 |
| 20260503184933 | 57 | 18 | 2.6 | 0.0 | 0.00 | 0.00 | 0.00 | 33 | 1012.6 |
| 20260503184900 | 57 | 219 | 2.6 | 0.0 | 0.00 | 0.00 | 0.00 | 33 | 1012.6 |
| 20260503184743 | 57 | 232 | 1.7 | 0.0 | 0.00 | 0.00 | 0.00 | 33 | 1012.6 |
| 20260503184623 | 57 | 270 | 1.7 | 0.0 | 0.00 | 0.00 | 0.00 | 33 | 1012.6 |
| 20260503184546 | 57 | 316 | 0.9 | 0.0 | 0.00 | 0.00 | 0.00 | 33 | 1012.6 |
| 20260503184425 | 57 | 269 | 1.7 | 0.0 | 0.00 | 0.00 | 0.00 | 34 | 1012.6 |
| 20260503184346 | 57 | 241 | 0.9 | 0.0 | 0.00 | 0.00 | 0.00 | 35 | 1012.8 |
| 20260503184224 | 57 | 242 | 1.7 | 0.0 | 0.00 | 0.00 | 0.00 | 36 | 1012.8 |
| 20260503184149 | 56 | 266 | 1.7 | 0.0 | 0.00 | 0.00 | 0.00 | 35 | 1012.8 |
| 20260503184027 | 56 | 319 | 2.6 | 0.0 | 0.00 | 0.00 | 0.00 | 36 | 1012.8 |
| 20260503183931 | 56 | 5 | 2.6 | 0.0 | 0.00 | 0.00 | 0.00 | 35 | 1012.8 |
| 20260503183832 | 56 | 35 | 2.6 | 0.0 | 0.00 | 0.00 | 0.00 | 35 | 1012.8 |
| 20260503183733 | 56 | 309 | 3.5 | 0.0 | 0.00 | 0.00 | 0.00 | 35 | 1012.8 |
| 20260503183651 | 56 | 326 | 3.5 | 0.0 | 0.00 | 0.00 | 0.00 | 34 | 1012.8 |
| 20260503183535 | 56 | 297 | 3.5 | 0.0 | 0.00 | 0.00 | 0.00 | 34 | 1012.8 |
| 20260503183437 | 56 | 250 | 3.5 | 0.0 | 0.00 | 0.00 | 0.00 | 35 | 1012.8 |
| 20260503183337 | 56 | 345 | 4.3 | 0.0 | 0.00 | 0.00 | 0.00 | 35 | 1012.8 |
| 20260503183234 | 56 | 269 | 4.3 | 0.0 | 0.00 | 0.00 | 0.00 | 35 | 1012.8 |
| 20260503183139 | 56 | 286 | 3.5 | 0.0 | 0.00 | 0.00 | 0.00 | 36 | 1012.8 |
| 20260503183102 | 56 | 359 | 4.3 | 0.0 | 0.00 | 0.00 | 0.00 | 36 | 1012.8 |
| 20260503182940 | 56 | 301 | 4.3 | 0.0 | 0.00 | 0.00 | 0.00 | 35 | 1012.8 |
| 20260503182839 | 56 | 286 | 4.3 | 0.0 | 0.00 | 0.00 | 0.00 | 36 | 1013.0 |
| 20260503182727 | 56 | 263 | 3.5 | 0.0 | 0.00 | 0.00 | 0.00 | 35 | 1013.0 |
| 20260503182625 | 55 | 263 | 3.5 | 0.0 | 0.00 | 0.00 | 0.00 | 36 | 1013.0 |
| 20260503182527 | 55 | 248 | 3.5 | 0.0 | 0.00 | 0.00 | 0.00 | 36 | 1013.0 |
| 20260503182427 | 55 | 222 | 3.5 | 0.0 | 0.00 | 0.00 | 0.00 | 36 | 1013.0 |
| 20260503182327 | 55 | 224 | 2.6 | 0.0 | 0.00 | 0.00 | 0.00 | 36 | 1013.0 |
| 20260503182228 | 55 | 306 | 2.6 | 0.0 | 0.00 | 0.00 | 0.00 | 36 | 1013.0 |
| 20260503182133 | 55 | 286 | 2.6 | 0.0 | 0.00 | 0.00 | 0.00 | 37 | 1013.0 |
| 20260503182031 | 55 | 273 | 1.7 | 0.0 | 0.00 | 0.00 | 0.00 | 36 | 1013.0 |
| 20260503181931 | 55 | 242 | 1.7 | 0.0 | 0.00 | 0.00 | 0.00 | 37 | 1013.0 |
| 20260503181850 | 55 | 323 | 1.7 | 0.0 | 0.00 | 0.00 | 0.00 | 37 | 1013.0 |
| 20260503181731 | 55 | 253 | 1.7 | 0.0 | 0.00 | 0.00 | 0.00 | 37 | 1013.0 |
| 20260503181633 | 55 | 238 | 1.7 | 0.0 | 0.00 | 0.00 | 0.00 | 39 | 1013.0 |
| 20260503181539 | 55 | 29 | 1.7 | 0.0 | 0.00 | 0.00 | 0.00 | 38 | 1013.0 |
| 20260503181439 | 55 | 281 | 1.7 | 0.0 | 0.00 | 0.00 | 0.00 | 38 | 1013.0 |
| 20260503181341 | 55 | 316 | 2.6 | 0.0 | 0.00 | 0.00 | 0.00 | 38 | 1013.1 |
| 20260503181238 | 55 | 324 | 1.7 | 0.0 | 0.00 | 0.00 | 0.00 | 38 | 1013.1 |
| 20260503181139 | 55 | 282 | 2.6 | 0.0 | 0.00 | 0.00 | 0.00 | 38 | 1013.1 |
| 20260503181039 | 55 | 290 | 2.6 | 0.0 | 0.00 | 0.00 | 0.00 | 38 | 1013.1 |
| 20260503180939 | 55 | 315 | 2.6 | 0.0 | 0.00 | 0.00 | 0.00 | 38 | 1013.1 |
| 20260503180820 | 55 | 326 | 2.6 | 0.0 | 0.00 | 0.00 | 0.00 | 38 | 1013.1 |
| 20260503180726 | 55 | 282 | 2.6 | 0.0 | 0.00 | 0.00 | 0.00 | 37 | 1013.1 |
| 20260503180627 | 55 | 345 | 2.6 | 0.0 | 0.00 | 0.00 | 0.00 | 37 | 1013.1 |
| 20260503180528 | 55 | 330 | 2.6 | 0.0 | 0.00 | 0.00 | 0.00 | 36 | 1013.1 |
| 20260503180429 | 55 | 308 | 2.6 | 0.0 | 0.00 | 0.00 | 0.00 | 38 | 1013.1 |
| 20260503180330 | 55 | 289 | 2.6 | 0.0 | 0.00 | 0.00 | 0.00 | 38 | 1013.1 |
| 20260503180228 | 55 | 6 | 2.6 | 0.0 | 0.00 | 0.00 | 0.00 | 37 | 1013.1 |
| 20260503180133 | 55 | 211 | 2.6 | 0.0 | 0.00 | 0.00 | 0.00 | 36 | 1013.1 |
| 20260503180031 | 55 | 299 | 1.7 | 0.0 | 0.00 | 0.00 | 0.00 | 38 | 1013.1 |
| 20260503175931 | 55 | 296 | 2.6 | 0.0 | 0.00 | 0.00 | 0.00 | 37 | 1013.1 |
| 20260503175829 | 55 | 17 | 1.7 | 0.0 | 0.00 | 0.00 | 0.00 | 37 | 1013.2 |
| 20260503175731 | 55 | 68 | 1.7 | 0.0 | 0.00 | 0.00 | 0.00 | 37 | 1013.2 |
| 20260503175629 | 55 | 74 | 2.6 | 0.0 | 0.00 | 0.00 | 0.00 | 37 | 1013.2 |
| 20260503175534 | 55 | 278 | 2.6 | 0.0 | 0.00 | 0.00 | 0.00 | 37 | 1013.2 |
| 20260503175430 | 55 | 295 | 2.6 | 0.0 | 0.00 | 0.00 | 0.00 | 37 | 1013.2 |
| 20260503175332 | 55 | 269 | 1.7 | 0.0 | 0.00 | 0.00 | 0.00 | 37 | 1013.2 |
| 20260503175230 | 55 | 290 | 1.7 | 0.0 | 0.00 | 0.00 | 0.00 | 38 | 1013.2 |
| 20260503175153 | 55 | 308 | 1.7 | 0.0 | 0.00 | 0.00 | 0.00 | 39 | 1013.2 |
| 20260503175029 | 55 | 336 | 1.7 | 0.0 | 0.00 | 0.00 | 0.00 | 40 | 1013.2 |
| 20260503174930 | 55 | 14 | 2.6 | 0.0 | 0.00 | 0.00 | 0.00 | 40 | 1013.2 |
| 20260503174832 | 54 | 300 | 2.6 | 0.0 | 0.00 | 0.00 | 0.00 | 40 | 1013.2 |
| 20260503174734 | 54 | 300 | 3.5 | 0.0 | 0.00 | 0.00 | 0.00 | 40 | 1013.2 |
| 20260503174631 | 54 | 267 | 3.5 | 0.0 | 0.00 | 0.00 | 0.00 | 40 | 1013.2 |
| 20260503174533 | 54 | 261 | 3.5 | 0.0 | 0.00 | 0.00 | 0.00 | 40 | 1013.2 |
| 20260503174429 | 54 | 257 | 2.6 | 0.0 | 0.00 | 0.00 | 0.00 | 39 | 1013.2 |
| 20260503174331 | 54 | 189 | 2.6 | 0.0 | 0.00 | 0.00 | 0.00 | 39 | 1013.2 |
| 20260503174232 | 54 | 307 | 2.6 | 0.0 | 0.00 | 0.00 | 0.00 | 38 | 1013.2 |
| 20260503174137 | 54 | 213 | 2.6 | 0.0 | 0.00 | 0.00 | 0.00 | 38 | 1013.2 |
| 20260503174036 | 54 | 209 | 2.6 | 0.0 | 0.00 | 0.00 | 0.00 | 38 | 1013.2 |
| 20260503173938 | 55 | 276 | 2.6 | 0.0 | 0.00 | 0.00 | 0.00 | 38 | 1013.2 |
| 20260503173837 | 55 | 282 | 1.7 | 0.0 | 0.00 | 0.00 | 0.00 | 39 | 1013.2 |
| 20260503173738 | 55 | 241 | 1.7 | 0.0 | 0.00 | 0.00 | 0.00 | 40 | 1013.2 |
| 20260503173659 | 55 | 254 | 1.7 | 0.0 | 0.00 | 0.00 | 0.00 | 40 | 1013.2 |
| 20260503173538 | 55 | 233 | 1.7 | 0.0 | 0.00 | 0.00 | 0.00 | 41 | 1013.2 |
| 20260503173503 | 55 | 307 | 1.7 | 0.0 | 0.00 | 0.00 | 0.00 | 41 | 1013.2 |
| 20260503173343 | 54 | 319 | 1.7 | 0.0 | 0.00 | 0.00 | 0.00 | 41 | 1013.2 |
| 20260503173241 | 54 | 345 | 1.7 | 0.0 | 0.00 | 0.00 | 0.00 | 41 | 1013.2 |
| 20260503173143 | 54 | 291 | 0.9 | 0.0 | 0.00 | 0.00 | 0.00 | 40 | 1013.2 |
| 20260503173040 | 54 | 286 | 1.7 | 0.0 | 0.00 | 0.00 | 0.00 | 41 | 1013.2 |
| 20260503172941 | 54 | 267 | 1.7 | 0.0 | 0.00 | 0.00 | 0.00 | 41 | 1013.2 |
| 20260503172842 | 53 | 240 | 1.7 | 0.0 | 0.00 | 0.00 | 0.00 | 41 | 1013.4 |
| 20260503172731 | 53 | 242 | 1.7 | 0.0 | 0.00 | 0.00 | 0.00 | 41 | 1013.4 |
| 20260503172650 | 53 | 355 | 2.6 | 0.0 | 0.00 | 0.00 | 0.00 | 41 | 1013.4 |
| 20260503172531 | 53 | 7 | 2.6 | 0.0 | 0.00 | 0.00 | 0.00 | 41 | 1013.4 |
| 20260503172428 | 53 | 312 | 2.6 | 0.0 | 0.00 | 0.00 | 0.00 | 41 | 1013.4 |
| 20260503172332 | 53 | 293 | 2.6 | 0.0 | 0.00 | 0.00 | 0.00 | 41 | 1013.4 |
| 20260503172250 | 53 | 340 | 2.6 | 0.0 | 0.00 | 0.00 | 0.00 | 40 | 1013.4 |
| 20260503172131 | 53 | 5 | 2.6 | 0.0 | 0.00 | 0.00 | 0.00 | 39 | 1013.4 |
| 20260503172034 | 54 | 264 | 2.6 | 0.0 | 0.00 | 0.00 | 0.00 | 39 | 1013.4 |
| 20260503171935 | 54 | 288 | 2.6 | 0.0 | 0.00 | 0.00 | 0.00 | 39 | 1013.4 |
| 20260503171832 | 54 | 285 | 2.6 | 0.0 | 0.00 | 0.00 | 0.00 | 38 | 1013.4 |
| 20260503171734 | 54 | 327 | 1.7 | 0.0 | 0.00 | 0.00 | 0.00 | 38 | 1013.4 |
| 20260503171659 | 54 | 303 | 1.7 | 0.0 | 0.00 | 0.00 | 0.00 | 39 | 1013.4 |
| 20260503171544 | 54 | 261 | 1.7 | 0.0 | 0.00 | 0.00 | 0.00 | 39 | 1013.4 |
| 20260503171425 | 54 | 305 | 1.7 | 0.0 | 0.00 | 0.00 | 0.00 | 40 | 1013.4 |
| 20260503171331 | 54 | 319 | 2.6 | 0.0 | 0.00 | 0.00 | 0.00 | 40 | 1013.4 |
| 20260503171228 | 54 | 291 | 2.6 | 0.0 | 0.00 | 0.00 | 0.00 | 40 | 1013.4 |
| 20260503171150 | 53 | 313 | 2.6 | 0.0 | 0.00 | 0.00 | 0.00 | 41 | 1013.4 |
| 20260503171028 | 53 | 333 | 2.6 | 0.0 | 0.00 | 0.00 | 0.00 | 40 | 1013.4 |
| 20260503170929 | 53 | 285 | 3.5 | 0.0 | 0.00 | 0.00 | 0.00 | 40 | 1013.4 |
| 20260503170826 | 53 | 310 | 3.5 | 0.0 | 0.00 | 0.00 | 0.00 | 39 | 1013.4 |
| 20260503170727 | 53 | 311 | 3.5 | 0.0 | 0.00 | 0.00 | 0.00 | 40 | 1013.4 |
| 20260503170628 | 53 | 6 | 2.6 | 0.0 | 0.00 | 0.00 | 0.00 | 40 | 1013.4 |
| 20260503170529 | 53 | 4 | 2.6 | 0.0 | 0.00 | 0.00 | 0.00 | 40 | 1013.4 |
| 20260503170446 | 53 | 34 | 2.6 | 0.0 | 0.00 | 0.00 | 0.00 | 42 | 1013.4 |
| 20260503170327 | 53 | 7 | 2.6 | 0.0 | 0.00 | 0.00 | 0.00 | 40 | 1013.4 |
| 20260503170226 | 53 | 302 | 1.7 | 0.0 | 0.00 | 0.00 | 0.00 | 41 | 1013.4 |
| 20260503170148 | 53 | 319 | 2.6 | 0.0 | 0.00 | 0.00 | 0.00 | 41 | 1013.4 |
| 20260503160138 | 52 | 286 | 2.6 | 0.0 | 0.00 | 0.00 | 0.00 | 44 | 1013.9 |
| 20260503150937 | 50 | 290 | 3.5 | 0.0 | 0.00 | 0.00 | 0.00 | 45 | 1013.9 |
| 20260503150836 | 50 | 253 | 2.6 | 0.0 | 0.00 | 0.00 | 0.00 | 46 | 1013.9 |
| 20260503150741 | 50 | 268 | 2.6 | 0.0 | 0.00 | 0.00 | 0.00 | 45 | 1013.9 |
| 20260503150702 | 50 | 350 | 2.6 | 0.0 | 0.00 | 0.00 | 0.00 | 45 | 1013.9 |
| 20260503150543 | 51 | 12 | 2.6 | 0.0 | 0.00 | 0.00 | 0.00 | 44 | 1013.9 |
| 20260503150443 | 51 | 299 | 2.6 | 0.0 | 0.00 | 0.00 | 0.00 | 43 | 1013.9 |
| 20260503150404 | 51 | 284 | 2.6 | 0.0 | 0.00 | 0.00 | 0.00 | 43 | 1013.9 |
| 20260503150225 | 51 | 282 | 1.7 | 0.0 | 0.00 | 0.00 | 0.00 | 44 | 1013.9 |
| 20260503150127 | 51 | 325 | 1.7 | 0.0 | 0.00 | 0.00 | 0.00 | 44 | 1013.9 |
| 20260503140223 | 49 | 285 | 4.3 | 0.0 | 0.00 | 0.00 | 0.00 | 48 | 1014.2 |
| 20260503140149 | 49 | 345 | 4.3 | 0.0 | 0.00 | 0.00 | 0.00 | 48 | 1014.2 |
| 20260503131348 | 48 | 290 | 2.6 | 0.0 | 0.00 | 0.00 | 0.00 | 52 | 1014.0 |
| 20260503131229 | 48 | 14 | 2.6 | 0.0 | 0.00 | 0.00 | 0.00 | 52 | 1014.0 |
| 20260503131132 | 48 | 41 | 2.6 | 0.0 | 0.00 | 0.00 | 0.00 | 53 | 1014.0 |
| 20260503131038 | 48 | 41 | 2.6 | 0.0 | 0.00 | 0.00 | 0.00 | 53 | 1014.0 |
| 20260503131003 | 49 | 44 | 2.6 | 0.0 | 0.00 | 0.00 | 0.00 | 53 | 1014.0 |
| 20260503130839 | 49 | 313 | 2.6 | 0.0 | 0.00 | 0.00 | 0.00 | 53 | 1014.0 |
| 20260503130742 | 49 | 304 | 2.6 | 0.0 | 0.00 | 0.00 | 0.00 | 53 | 1014.0 |
| 20260503130704 | 48 | 285 | 2.6 | 0.0 | 0.00 | 0.00 | 0.00 | 53 | 1014.0 |
| 20260503130605 | 48 | 338 | 2.6 | 0.0 | 0.00 | 0.00 | 0.00 | 53 | 1014.0 |
| 20260503130440 | 48 | 322 | 2.6 | 0.0 | 0.00 | 0.00 | 0.00 | 54 | 1014.0 |
| 20260503130343 | 48 | 308 | 2.6 | 0.0 | 0.00 | 0.00 | 0.00 | 54 | 1014.0 |
| 20260503130248 | 48 | 327 | 2.6 | 0.0 | 0.00 | 0.00 | 0.00 | 55 | 1014.0 |
| 20260503130128 | 48 | 334 | 2.6 | 0.0 | 0.00 | 0.00 | 0.00 | 55 | 1014.0 |
| 20260503120129 | 46 | 5 | 1.7 | 0.0 | 0.00 | 0.00 | 0.00 | 58 | 1013.7 |
| 20260503110738 | 46 | 26 | 0.9 | 0.0 | 0.00 | 0.00 | 0.00 | 58 | 1013.2 |
| 20260503110636 | 46 | 56 | 0.0 | 0.0 | 0.00 | 0.00 | 0.00 | 58 | 1013.2 |
| 20260503110539 | 46 | 330 | 0.0 | 0.0 | 0.00 | 0.00 | 0.00 | 58 | 1013.2 |
| 20260503110440 | 46 | 327 | 0.0 | 0.0 | 0.00 | 0.00 | 0.00 | 58 | 1013.2 |
| 20260503110343 | 46 | 345 | 0.0 | 0.0 | 0.00 | 0.00 | 0.00 | 58 | 1013.2 |
| 20260503110224 | 46 | 345 | 0.0 | 0.0 | 0.00 | 0.00 | 0.00 | 58 | 1013.2 |
| 20260503110145 | 46 | 345 | 0.9 | 0.0 | 0.00 | 0.00 | 0.00 | 58 | 1013.2 |
| 20260503100237 | 46 | 326 | 1.7 | 0.0 | 0.00 | 0.00 | 0.00 | 55 | 1012.2 |
| 20260503100143 | 46 | 334 | 1.7 | 0.0 | 0.00 | 0.00 | 0.00 | 55 | 1012.2 |
| 20260503090440 | 47 | 20 | 0.9 | 0.0 | 0.00 | 0.00 | 0.00 | 56 | 1011.6 |
| 20260503090341 | 47 | 32 | 0.9 | 0.0 | 0.00 | 0.00 | 0.00 | 55 | 1011.6 |
| 20260503090240 | 47 | 32 | 0.9 | 0.0 | 0.00 | 0.00 | 0.00 | 56 | 1011.6 |
| 20260503090146 | 47 | 32 | 0.9 | 0.0 | 0.00 | 0.00 | 0.00 | 56 | 1011.6 |
| 20260503081533 | 47 | 4 | 0.0 | 0.0 | 0.00 | 0.00 | 0.00 | 55 | 1011.6 |
| 20260503081430 | 47 | 3 | 0.9 | 0.0 | 0.00 | 0.00 | 0.00 | 55 | 1011.6 |
| 20260503081332 | 47 | 3 | 0.9 | 0.0 | 0.00 | 0.00 | 0.00 | 56 | 1011.5 |
| 20260503081229 | 47 | 2 | 0.0 | 0.0 | 0.00 | 0.00 | 0.00 | 56 | 1011.5 |
| 20260503081132 | 47 | 3 | 0.0 | 0.0 | 0.00 | 0.00 | 0.00 | 56 | 1011.5 |
| 20260503081051 | 47 | 7 | 0.0 | 0.0 | 0.00 | 0.00 | 0.00 | 57 | 1011.5 |
| 20260503080933 | 47 | 3 | 0.0 | 0.0 | 0.00 | 0.00 | 0.00 | 56 | 1011.5 |
| 20260503080835 | 47 | 2 | 0.0 | 0.0 | 0.00 | 0.00 | 0.00 | 56 | 1011.5 |
| 20260503080736 | 47 | 360 | 0.0 | 0.0 | 0.00 | 0.00 | 0.00 | 57 | 1011.5 |
| 20260503080639 | 47 | 355 | 0.0 | 0.0 | 0.00 | 0.00 | 0.00 | 57 | 1011.5 |
| 20260503080541 | 47 | 355 | 0.0 | 0.0 | 0.00 | 0.00 | 0.00 | 56 | 1011.5 |
| 20260503080437 | 47 | 355 | 0.0 | 0.0 | 0.00 | 0.00 | 0.00 | 56 | 1011.5 |
| 20260503080339 | 47 | 350 | 0.0 | 0.0 | 0.00 | 0.00 | 0.00 | 56 | 1011.5 |
| 20260503080238 | 47 | 350 | 0.0 | 0.0 | 0.00 | 0.00 | 0.00 | 56 | 1011.5 |
| 20260503080124 | 47 | 350 | 0.0 | 0.0 | 0.00 | 0.00 | 0.00 | 56 | 1011.5 |
| 20260503072937 | 48 | 355 | 0.0 | 0.0 | 0.00 | 0.00 | 0.00 | 55 | 1011.4 |
| 20260503072858 | 48 | 355 | 0.0 | 0.0 | 0.00 | 0.00 | 0.00 | 55 | 1011.5 |
| 20260503072739 | 48 | 355 | 0.0 | 0.0 | 0.00 | 0.00 | 0.00 | 54 | 1011.5 |
| 20260503072637 | 48 | 355 | 0.0 | 0.0 | 0.00 | 0.00 | 0.00 | 54 | 1011.5 |
| 20260503072539 | 48 | 355 | 0.0 | 0.0 | 0.00 | 0.00 | 0.00 | 54 | 1011.5 |
| 20260503072456 | 48 | 355 | 0.0 | 0.0 | 0.00 | 0.00 | 0.00 | 55 | 1011.5 |
| 20260503072337 | 48 | 355 | 0.0 | 0.0 | 0.00 | 0.00 | 0.00 | 54 | 1011.5 |
| 20260503072235 | 48 | 355 | 0.0 | 0.0 | 0.00 | 0.00 | 0.00 | 54 | 1011.5 |
| 20260503072140 | 48 | 355 | 0.0 | 0.0 | 0.00 | 0.00 | 0.00 | 54 | 1011.5 |
| 20260503072041 | 48 | 355 | 0.0 | 0.0 | 0.00 | 0.00 | 0.00 | 55 | 1011.5 |
| 20260503071942 | 48 | 350 | 0.0 | 0.0 | 0.00 | 0.00 | 0.00 | 54 | 1011.5 |
| 20260503071841 | 48 | 305 | 0.0 | 0.0 | 0.00 | 0.00 | 0.00 | 54 | 1011.5 |
| 20260503071743 | 48 | 299 | 0.0 | 0.0 | 0.00 | 0.00 | 0.00 | 55 | 1011.5 |
| 20260503071640 | 48 | 36 | 0.0 | 0.0 | 0.00 | 0.00 | 0.00 | 54 | 1011.5 |
| 20260503071546 | 48 | 36 | 0.0 | 0.0 | 0.00 | 0.00 | 0.00 | 54 | 1011.5 |
| 20260503071507 | 48 | 14 | 0.0 | 0.0 | 0.00 | 0.00 | 0.00 | 54 | 1011.5 |
| 20260503071406 | 48 | 3 | 0.0 | 0.0 | 0.00 | 0.00 | 0.00 | 54 | 1011.5 |
| 20260503071224 | 48 | 2 | 0.0 | 0.0 | 0.00 | 0.00 | 0.00 | 55 | 1011.5 |
| 20260503071126 | 48 | 2 | 0.0 | 0.0 | 0.00 | 0.00 | 0.00 | 55 | 1011.5 |
| 20260503071028 | 48 | 2 | 0.0 | 0.0 | 0.00 | 0.00 | 0.00 | 56 | 1011.5 |
| 20260503070928 | 48 | 3 | 0.0 | 0.0 | 0.00 | 0.00 | 0.00 | 54 | 1011.5 |
| 20260503070846 | 48 | 3 | 0.0 | 0.0 | 0.00 | 0.00 | 0.00 | 54 | 1011.5 |
| 20260503070732 | 48 | 3 | 0.0 | 0.0 | 0.00 | 0.00 | 0.00 | 54 | 1011.5 |
| 20260503070630 | 48 | 3 | 0.0 | 0.0 | 0.00 | 0.00 | 0.00 | 54 | 1011.5 |
| 20260503070537 | 48 | 3 | 0.0 | 0.0 | 0.00 | 0.00 | 0.00 | 54 | 1011.5 |
| 20260503070433 | 48 | 3 | 0.0 | 0.0 | 0.00 | 0.00 | 0.00 | 54 | 1011.5 |
| 20260503070336 | 48 | 3 | 0.0 | 0.0 | 0.00 | 0.00 | 0.00 | 55 | 1011.5 |
| 20260503070234 | 48 | 3 | 0.0 | 0.0 | 0.00 | 0.00 | 0.00 | 54 | 1011.5 |
| 20260503070139 | 48 | 3 | 0.0 | 0.0 | 0.00 | 0.00 | 0.00 | 54 | 1011.5 |
| 20260503060340 | 49 | 1 | 0.0 | 0.0 | 0.00 | 0.00 | 0.00 | 51 | 1011.6 |
| 20260503060302 | 49 | 1 | 0.0 | 0.0 | 0.00 | 0.00 | 0.00 | 52 | 1011.6 |
| 20260503060202 | 49 | 1 | 0.0 | 0.0 | 0.00 | 0.00 | 0.00 | 52 | 1011.6 |
| 20260503055126 | 50 | 340 | 0.0 | 0.0 | 0.00 | 0.00 | 0.00 | 51 | 1011.7 |
| 20260503055028 | 50 | 340 | 0.0 | 0.0 | 0.00 | 0.00 | 0.00 | 51 | 1011.7 |
| 20260503054927 | 50 | 340 | 0.0 | 0.0 | 0.00 | 0.00 | 0.00 | 51 | 1011.7 |
| 20260503054826 | 50 | 340 | 0.0 | 0.0 | 0.00 | 0.00 | 0.00 | 51 | 1011.7 |
| 20260503054728 | 50 | 340 | 0.0 | 0.0 | 0.00 | 0.00 | 0.00 | 51 | 1011.7 |
| 20260503054626 | 50 | 340 | 0.0 | 0.0 | 0.00 | 0.00 | 0.00 | 51 | 1011.7 |
| 20260503054533 | 50 | 338 | 0.0 | 0.0 | 0.00 | 0.00 | 0.00 | 51 | 1011.7 |
| 20260503054429 | 50 | 332 | 0.0 | 0.0 | 0.00 | 0.00 | 0.00 | 51 | 1011.7 |
| 20260503054334 | 50 | 332 | 0.0 | 0.0 | 0.00 | 0.00 | 0.00 | 51 | 1011.7 |
| 20260503054232 | 50 | 332 | 0.0 | 0.0 | 0.00 | 0.00 | 0.00 | 52 | 1011.7 |
| 20260503054134 | 50 | 332 | 0.0 | 0.0 | 0.00 | 0.00 | 0.00 | 51 | 1011.7 |
| 20260503054032 | 50 | 332 | 0.0 | 0.0 | 0.00 | 0.00 | 0.00 | 51 | 1011.7 |
| 20260503053933 | 50 | 332 | 0.0 | 0.0 | 0.00 | 0.00 | 0.00 | 51 | 1011.7 |
| 20260503053837 | 50 | 330 | 0.0 | 0.0 | 0.00 | 0.00 | 0.00 | 51 | 1011.7 |
| 20260503053738 | 50 | 330 | 0.0 | 0.0 | 0.00 | 0.00 | 0.00 | 51 | 1011.7 |
| 20260503053636 | 50 | 330 | 0.0 | 0.0 | 0.00 | 0.00 | 0.00 | 52 | 1011.7 |
| 20260503053542 | 50 | 330 | 0.0 | 0.0 | 0.00 | 0.00 | 0.00 | 52 | 1011.7 |
| 20260503053442 | 50 | 329 | 0.0 | 0.0 | 0.00 | 0.00 | 0.00 | 52 | 1011.7 |
| 20260503053404 | 50 | 329 | 0.0 | 0.0 | 0.00 | 0.00 | 0.00 | 52 | 1011.7 |
| 20260503053224 | 50 | 329 | 0.0 | 0.0 | 0.00 | 0.00 | 0.00 | 52 | 1011.7 |
| 20260503053145 | 50 | 330 | 0.0 | 0.0 | 0.00 | 0.00 | 0.00 | 52 | 1011.7 |
| 20260503053044 | 50 | 330 | 0.0 | 0.0 | 0.00 | 0.00 | 0.00 | 51 | 1011.7 |
| 20260503052945 | 50 | 329 | 0.0 | 0.0 | 0.00 | 0.00 | 0.00 | 51 | 1011.7 |
| 20260503052843 | 50 | 329 | 0.0 | 0.0 | 0.00 | 0.00 | 0.00 | 51 | 1011.8 |
| 20260503052743 | 50 | 329 | 0.0 | 0.0 | 0.00 | 0.00 | 0.00 | 52 | 1011.8 |
| 20260503052621 | 50 | 329 | 0.0 | 0.0 | 0.00 | 0.00 | 0.00 | 51 | 1011.8 |
| 20260503052530 | 50 | 329 | 0.0 | 0.0 | 0.00 | 0.00 | 0.00 | 50 | 1011.8 |
| 20260503052448 | 50 | 329 | 0.0 | 0.0 | 0.00 | 0.00 | 0.00 | 50 | 1011.8 |
| 20260503052348 | 50 | 329 | 0.0 | 0.0 | 0.00 | 0.00 | 0.00 | 50 | 1011.8 |
| 20260503052249 | 50 | 329 | 0.0 | 0.0 | 0.00 | 0.00 | 0.00 | 51 | 1011.8 |
| 20260503052129 | 50 | 329 | 0.0 | 0.0 | 0.00 | 0.00 | 0.00 | 50 | 1011.8 |
| 20260503052030 | 50 | 329 | 0.0 | 0.0 | 0.00 | 0.00 | 0.00 | 50 | 1011.8 |
| 20260503051930 | 50 | 329 | 0.0 | 0.0 | 0.00 | 0.00 | 0.00 | 50 | 1011.8 |
| 20260503051829 | 50 | 329 | 0.0 | 0.0 | 0.00 | 0.00 | 0.00 | 50 | 1011.8 |
| 20260503051734 | 50 | 329 | 0.0 | 0.0 | 0.00 | 0.00 | 0.00 | 50 | 1011.8 |
| 20260503051636 | 50 | 329 | 0.0 | 0.0 | 0.00 | 0.00 | 0.00 | 50 | 1011.8 |
| 20260503051539 | 50 | 317 | 0.0 | 0.0 | 0.00 | 0.00 | 0.00 | 50 | 1011.8 |
| 20260503051436 | 50 | 317 | 0.0 | 0.0 | 0.00 | 0.00 | 0.00 | 50 | 1011.8 |
| 20260503051337 | 50 | 317 | 0.0 | 0.0 | 0.00 | 0.00 | 0.00 | 50 | 1011.8 |
| 20260503051239 | 50 | 317 | 0.0 | 0.0 | 0.00 | 0.00 | 0.00 | 50 | 1011.8 |
| 20260503051127 | 50 | 317 | 0.0 | 0.0 | 0.00 | 0.00 | 0.00 | 49 | 1011.8 |
| 20260503051029 | 51 | 317 | 0.0 | 0.0 | 0.00 | 0.00 | 0.00 | 50 | 1011.8 |
| 20260503050930 | 51 | 317 | 0.0 | 0.0 | 0.00 | 0.00 | 0.00 | 49 | 1011.8 |
| 20260503050828 | 51 | 317 | 0.0 | 0.0 | 0.00 | 0.00 | 0.00 | 50 | 1011.8 |
| 20260503050754 | 51 | 317 | 0.0 | 0.0 | 0.00 | 0.00 | 0.00 | 50 | 1011.8 |
| 20260503050634 | 51 | 317 | 0.0 | 0.0 | 0.00 | 0.00 | 0.00 | 49 | 1011.8 |
| 20260503050536 | 51 | 317 | 0.0 | 0.0 | 0.00 | 0.00 | 0.00 | 49 | 1011.8 |
| 20260503050437 | 51 | 317 | 0.0 | 0.0 | 0.00 | 0.00 | 0.00 | 49 | 1011.8 |
| 20260503050339 | 51 | 317 | 0.0 | 0.0 | 0.00 | 0.00 | 0.00 | 49 | 1011.8 |
| 20260503050237 | 51 | 317 | 0.0 | 0.0 | 0.00 | 0.00 | 0.00 | 49 | 1011.8 |
| 20260503050137 | 51 | 317 | 0.0 | 0.0 | 0.00 | 0.00 | 0.00 | 49 | 1011.8 |
| 20260503050036 | 51 | 317 | 0.0 | 0.0 | 0.00 | 0.00 | 0.00 | 49 | 1011.8 |
| 20260503045940 | 51 | 317 | 0.0 | 0.0 | 0.00 | 0.00 | 0.00 | 51 | 1011.8 |
| 20260503045845 | 51 | 317 | 0.0 | 0.0 | 0.00 | 0.00 | 0.00 | 49 | 1012.1 |
| 20260503045728 | 51 | 317 | 0.0 | 0.0 | 0.00 | 0.00 | 0.00 | 49 | 1012.1 |
| 20260503045650 | 51 | 317 | 0.0 | 0.0 | 0.00 | 0.00 | 0.00 | 49 | 1012.1 |
| 20260503045530 | 51 | 317 | 0.0 | 0.0 | 0.00 | 0.00 | 0.00 | 49 | 1012.1 |
| 20260503045426 | 51 | 317 | 0.9 | 0.0 | 0.00 | 0.00 | 0.00 | 49 | 1012.1 |
| 20260503045328 | 51 | 317 | 0.9 | 0.0 | 0.00 | 0.00 | 0.00 | 49 | 1012.1 |
| 20260503045230 | 51 | 317 | 0.9 | 0.0 | 0.00 | 0.00 | 0.00 | 49 | 1012.1 |
| 20260503045139 | 51 | 317 | 0.0 | 0.0 | 0.00 | 0.00 | 0.00 | 49 | 1012.1 |
| 20260503045041 | 51 | 317 | 0.0 | 0.0 | 0.00 | 0.00 | 0.00 | 49 | 1012.1 |
| 20260503044942 | 51 | 317 | 0.0 | 0.0 | 0.00 | 0.00 | 0.00 | 49 | 1012.1 |
| 20260503044843 | 51 | 317 | 0.0 | 0.0 | 0.00 | 0.00 | 0.00 | 50 | 1012.1 |
| 20260503044805 | 51 | 317 | 0.0 | 0.0 | 0.00 | 0.00 | 0.00 | 49 | 1012.1 |
| 20260503044642 | 51 | 317 | 0.0 | 0.0 | 0.00 | 0.00 | 0.00 | 49 | 1012.1 |
| 20260503044545 | 51 | 325 | 0.0 | 0.0 | 0.00 | 0.00 | 0.00 | 49 | 1012.1 |
| 20260503044429 | 51 | 350 | 0.0 | 0.0 | 0.00 | 0.00 | 0.00 | 49 | 1012.1 |
| 20260503044353 | 51 | 355 | 0.0 | 0.0 | 0.00 | 0.00 | 0.00 | 49 | 1012.1 |
| 20260503044252 | 51 | 355 | 0.0 | 0.0 | 0.00 | 0.00 | 0.00 | 51 | 1012.1 |
| 20260503044135 | 51 | 355 | 0.0 | 0.0 | 0.00 | 0.00 | 0.00 | 50 | 1012.1 |
| 20260503044035 | 51 | 355 | 0.0 | 0.0 | 0.00 | 0.00 | 0.00 | 50 | 1012.1 |
| 20260503043955 | 51 | 355 | 0.0 | 0.0 | 0.00 | 0.00 | 0.00 | 49 | 1012.1 |
| 20260503043836 | 51 | 355 | 0.0 | 0.0 | 0.00 | 0.00 | 0.00 | 49 | 1012.1 |
| 20260503043737 | 51 | 355 | 0.0 | 0.0 | 0.00 | 0.00 | 0.00 | 48 | 1012.1 |
| 20260503043639 | 51 | 355 | 0.0 | 0.0 | 0.00 | 0.00 | 0.00 | 49 | 1012.1 |
| 20260503043540 | 51 | 355 | 0.0 | 0.0 | 0.00 | 0.00 | 0.00 | 49 | 1012.1 |
| 20260503043501 | 51 | 355 | 0.0 | 0.0 | 0.00 | 0.00 | 0.00 | 49 | 1012.1 |
| 20260503043341 | 51 | 355 | 0.0 | 0.0 | 0.00 | 0.00 | 0.00 | 49 | 1012.1 |
| 20260503043239 | 51 | 355 | 0.0 | 0.0 | 0.00 | 0.00 | 0.00 | 49 | 1012.1 |
| 20260503043141 | 51 | 355 | 0.0 | 0.0 | 0.00 | 0.00 | 0.00 | 49 | 1012.1 |
| 20260503043026 | 51 | 355 | 0.0 | 0.0 | 0.00 | 0.00 | 0.00 | 49 | 1012.1 |
| 20260503042927 | 51 | 355 | 0.0 | 0.0 | 0.00 | 0.00 | 0.00 | 49 | 1012.1 |
| 20260503042825 | 51 | 355 | 0.0 | 0.0 | 0.00 | 0.00 | 0.00 | 49 | 1012.1 |
| 20260503042726 | 51 | 6 | 0.0 | 0.0 | 0.00 | 0.00 | 0.00 | 49 | 1012.1 |
| 20260503042628 | 51 | 6 | 0.0 | 0.0 | 0.00 | 0.00 | 0.00 | 49 | 1012.1 |
| 20260503042530 | 51 | 6 | 0.0 | 0.0 | 0.00 | 0.00 | 0.00 | 49 | 1012.1 |
| 20260503042429 | 51 | 6 | 0.0 | 0.0 | 0.00 | 0.00 | 0.00 | 49 | 1012.1 |
| 20260503042334 | 51 | 6 | 0.0 | 0.0 | 0.00 | 0.00 | 0.00 | 49 | 1012.1 |
| 20260503042251 | 51 | 6 | 0.0 | 0.0 | 0.00 | 0.00 | 0.00 | 48 | 1012.1 |
| 20260503042132 | 51 | 7 | 0.0 | 0.0 | 0.00 | 0.00 | 0.00 | 49 | 1012.1 |
| 20260503042031 | 51 | 7 | 0.0 | 0.0 | 0.00 | 0.00 | 0.00 | 49 | 1012.1 |
| 20260503041932 | 51 | 7 | 0.0 | 0.0 | 0.00 | 0.00 | 0.00 | 50 | 1012.1 |
| 20260503041851 | 51 | 7 | 0.0 | 0.0 | 0.00 | 0.00 | 0.00 | 49 | 1012.1 |
| 20260503041731 | 51 | 7 | 0.0 | 0.0 | 0.00 | 0.00 | 0.00 | 50 | 1012.1 |
| 20260503041637 | 51 | 7 | 0.0 | 0.0 | 0.00 | 0.00 | 0.00 | 50 | 1012.1 |
| 20260503041539 | 51 | 7 | 0.0 | 0.0 | 0.00 | 0.00 | 0.00 | 49 | 1012.1 |
| 20260503041459 | 51 | 7 | 0.0 | 0.0 | 0.00 | 0.00 | 0.00 | 49 | 1012.1 |
| 20260503041341 | 51 | 7 | 0.0 | 0.0 | 0.00 | 0.00 | 0.00 | 49 | 1012.1 |
| 20260503041239 | 51 | 7 | 0.0 | 0.0 | 0.00 | 0.00 | 0.00 | 49 | 1012.1 |
| 20260503041140 | 51 | 7 | 0.0 | 0.0 | 0.00 | 0.00 | 0.00 | 49 | 1012.1 |
| 20260503041039 | 51 | 7 | 0.0 | 0.0 | 0.00 | 0.00 | 0.00 | 48 | 1012.1 |
| 20260503040943 | 51 | 7 | 0.0 | 0.0 | 0.00 | 0.00 | 0.00 | 49 | 1012.1 |
| 20260503040824 | 51 | 1 | 0.0 | 0.0 | 0.00 | 0.00 | 0.00 | 49 | 1012.1 |
| 20260503040747 | 51 | 1 | 0.0 | 0.0 | 0.00 | 0.00 | 0.00 | 49 | 1012.1 |
| 20260503040712 | 51 | 1 | 0.0 | 0.0 | 0.00 | 0.00 | 0.00 | 49 | 1012.1 |
| 20260503040625 | 51 | 1 | 0.0 | 0.0 | 0.00 | 0.00 | 0.00 | 49 | 1012.1 |
| 20260503040424 | 51 | 1 | 0.0 | 0.0 | 0.00 | 0.00 | 0.00 | 49 | 1012.1 |
| 20260503040325 | 51 | 1 | 0.0 | 0.0 | 0.00 | 0.00 | 0.00 | 50 | 1012.1 |
| 20260503040232 | 51 | 3 | 0.0 | 0.0 | 0.00 | 0.00 | 0.00 | 49 | 1012.1 |
| 20260503040156 | 51 | 3 | 0.0 | 0.0 | 0.00 | 0.00 | 0.00 | 49 | 1012.1 |
| 20260503040052 | 51 | 3 | 0.0 | 0.0 | 0.00 | 0.00 | 0.00 | 49 | 1012.1 |
| 20260503035931 | 51 | 3 | 0.0 | 0.0 | 0.00 | 0.00 | 0.00 | 49 | 1012.1 |
| 20260503035829 | 51 | 3 | 0.0 | 0.0 | 0.00 | 0.00 | 0.00 | 49 | 1012.1 |
| 20260503035729 | 51 | 3 | 0.0 | 0.0 | 0.00 | 0.00 | 0.00 | 49 | 1012.1 |
| 20260503035627 | 51 | 3 | 0.0 | 0.0 | 0.00 | 0.00 | 0.00 | 50 | 1012.1 |
| 20260503035533 | 51 | 3 | 0.0 | 0.0 | 0.00 | 0.00 | 0.00 | 50 | 1012.1 |
| 20260503035430 | 51 | 3 | 0.0 | 0.0 | 0.00 | 0.00 | 0.00 | 51 | 1012.1 |
| 20260503035332 | 51 | 3 | 0.0 | 0.0 | 0.00 | 0.00 | 0.00 | 49 | 1012.1 |
| 20260503035249 | 51 | 3 | 0.0 | 0.0 | 0.00 | 0.00 | 0.00 | 49 | 1012.1 |
| 20260503035149 | 51 | 3 | 0.0 | 0.0 | 0.00 | 0.00 | 0.00 | 49 | 1012.1 |
| 20260503035029 | 51 | 3 | 0.0 | 0.0 | 0.00 | 0.00 | 0.00 | 49 | 1012.1 |
| 20260503034930 | 51 | 3 | 0.0 | 0.0 | 0.00 | 0.00 | 0.00 | 49 | 1012.1 |
| 20260503034830 | 51 | 3 | 0.0 | 0.0 | 0.00 | 0.00 | 0.00 | 49 | 1012.1 |
| 20260503034735 | 51 | 3 | 0.0 | 0.0 | 0.00 | 0.00 | 0.00 | 49 | 1012.1 |
| 20260503034634 | 51 | 3 | 0.0 | 0.0 | 0.00 | 0.00 | 0.00 | 49 | 1012.1 |
| 20260503034535 | 51 | 3 | 0.0 | 0.0 | 0.00 | 0.00 | 0.00 | 49 | 1012.1 |
| 20260503034436 | 51 | 3 | 0.0 | 0.0 | 0.00 | 0.00 | 0.00 | 49 | 1012.1 |
| 20260503034338 | 51 | 3 | 0.0 | 0.0 | 0.00 | 0.00 | 0.00 | 50 | 1012.1 |
| 20260503034239 | 51 | 4 | 0.0 | 0.0 | 0.00 | 0.00 | 0.00 | 50 | 1012.1 |
| 20260503034201 | 51 | 4 | 0.0 | 0.0 | 0.00 | 0.00 | 0.00 | 49 | 1012.1 |
| 20260503034041 | 51 | 5 | 0.0 | 0.0 | 0.00 | 0.00 | 0.00 | 49 | 1012.1 |
| 20260503033942 | 51 | 7 | 0.0 | 0.0 | 0.00 | 0.00 | 0.00 | 50 | 1012.1 |
| 20260503033840 | 51 | 7 | 0.0 | 0.0 | 0.00 | 0.00 | 0.00 | 50 | 1012.1 |
| 20260503033724 | 51 | 7 | 0.0 | 0.0 | 0.00 | 0.00 | 0.00 | 49 | 1012.1 |
| 20260503033625 | 51 | 8 | 0.0 | 0.0 | 0.00 | 0.00 | 0.00 | 50 | 1012.1 |
| 20260503033528 | 51 | 8 | 0.0 | 0.0 | 0.00 | 0.00 | 0.00 | 50 | 1012.1 |
| 20260503033450 | 51 | 8 | 0.0 | 0.0 | 0.00 | 0.00 | 0.00 | 50 | 1012.1 |
| 20260503033352 | 51 | 8 | 0.0 | 0.0 | 0.00 | 0.00 | 0.00 | 49 | 1012.1 |
| 20260503033232 | 51 | 7 | 0.0 | 0.0 | 0.00 | 0.00 | 0.00 | 49 | 1012.1 |
| 20260503033133 | 51 | 7 | 0.0 | 0.0 | 0.00 | 0.00 | 0.00 | 49 | 1012.1 |
| 20260503033030 | 51 | 7 | 0.0 | 0.0 | 0.00 | 0.00 | 0.00 | 48 | 1012.1 |
| 20260503032931 | 51 | 7 | 0.0 | 0.0 | 0.00 | 0.00 | 0.00 | 50 | 1012.1 |
| 20260503032829 | 52 | 8 | 0.0 | 0.0 | 0.00 | 0.00 | 0.00 | 49 | 1012.1 |
| 20260503032736 | 51 | 9 | 0.0 | 0.0 | 0.00 | 0.00 | 0.00 | 49 | 1012.1 |
| 20260503032701 | 51 | 9 | 0.0 | 0.0 | 0.00 | 0.00 | 0.00 | 49 | 1012.1 |
| 20260503032541 | 52 | 9 | 0.0 | 0.0 | 0.00 | 0.00 | 0.00 | 48 | 1012.1 |
| 20260503032438 | 52 | 9 | 0.0 | 0.0 | 0.00 | 0.00 | 0.00 | 49 | 1012.1 |
| 20260503032343 | 52 | 9 | 0.0 | 0.0 | 0.00 | 0.00 | 0.00 | 49 | 1012.1 |
| 20260503032225 | 52 | 9 | 0.0 | 0.0 | 0.00 | 0.00 | 0.00 | 50 | 1012.1 |
| 20260503032126 | 52 | 9 | 0.0 | 0.0 | 0.00 | 0.00 | 0.00 | 48 | 1012.1 |
| 20260503032052 | 52 | 9 | 0.0 | 0.0 | 0.00 | 0.00 | 0.00 | 48 | 1012.1 |
| 20260503031956 | 52 | 9 | 0.0 | 0.0 | 0.00 | 0.00 | 0.00 | 48 | 1012.1 |
| 20260503031833 | 52 | 9 | 0.0 | 0.0 | 0.00 | 0.00 | 0.00 | 48 | 1012.1 |
| 20260503031736 | 52 | 9 | 0.0 | 0.0 | 0.00 | 0.00 | 0.00 | 49 | 1012.1 |
| 20260503031634 | 52 | 9 | 0.0 | 0.0 | 0.00 | 0.00 | 0.00 | 49 | 1012.1 |
| 20260503031536 | 52 | 9 | 0.0 | 0.0 | 0.00 | 0.00 | 0.00 | 48 | 1012.1 |
| 20260503031433 | 52 | 9 | 0.0 | 0.0 | 0.00 | 0.00 | 0.00 | 49 | 1012.1 |
| 20260503031338 | 52 | 9 | 0.0 | 0.0 | 0.00 | 0.00 | 0.00 | 48 | 1012.1 |
| 20260503031237 | 52 | 9 | 0.0 | 0.0 | 0.00 | 0.00 | 0.00 | 48 | 1012.1 |
| 20260503031140 | 52 | 9 | 0.0 | 0.0 | 0.00 | 0.00 | 0.00 | 48 | 1012.1 |
| 20260503031038 | 52 | 9 | 0.0 | 0.0 | 0.00 | 0.00 | 0.00 | 48 | 1012.1 |
| 20260503030941 | 52 | 9 | 0.0 | 0.0 | 0.00 | 0.00 | 0.00 | 48 | 1012.1 |
| 20260503030840 | 52 | 9 | 0.0 | 0.0 | 0.00 | 0.00 | 0.00 | 48 | 1012.1 |
| 20260503030725 | 52 | 9 | 0.0 | 0.0 | 0.00 | 0.00 | 0.00 | 48 | 1012.1 |
| 20260503030626 | 52 | 9 | 0.0 | 0.0 | 0.00 | 0.00 | 0.00 | 48 | 1012.1 |
| 20260503030530 | 52 | 9 | 0.0 | 0.0 | 0.00 | 0.00 | 0.00 | 49 | 1012.1 |
| 20260503030427 | 52 | 9 | 0.0 | 0.0 | 0.00 | 0.00 | 0.00 | 48 | 1012.1 |
| 20260503030328 | 52 | 9 | 0.0 | 0.0 | 0.00 | 0.00 | 0.00 | 49 | 1012.1 |
| 20260503030228 | 52 | 9 | 0.0 | 0.0 | 0.00 | 0.00 | 0.00 | 49 | 1012.1 |
| 20260503030130 | 52 | 9 | 0.0 | 0.0 | 0.00 | 0.00 | 0.00 | 48 | 1012.1 |
| 20260503030036 | 52 | 9 | 0.0 | 0.0 | 0.00 | 0.00 | 0.00 | 47 | 1012.1 |
| 20260503025935 | 52 | 15 | 0.0 | 0.0 | 0.00 | 0.00 | 0.00 | 49 | 1012.1 |
| 20260503025833 | 52 | 15 | 0.0 | 0.0 | 0.00 | 0.00 | 0.00 | 49 | 1012.1 |
| 20260503025736 | 52 | 15 | 0.0 | 0.0 | 0.00 | 0.00 | 0.00 | 49 | 1012.1 |
| 20260503025634 | 52 | 16 | 0.0 | 0.0 | 0.00 | 0.00 | 0.00 | 49 | 1012.1 |
| 20260503025536 | 52 | 16 | 0.0 | 0.0 | 0.00 | 0.00 | 0.00 | 48 | 1012.1 |
| 20260503025440 | 52 | 16 | 0.0 | 0.0 | 0.00 | 0.00 | 0.00 | 49 | 1012.1 |
| 20260503025340 | 52 | 16 | 0.0 | 0.0 | 0.00 | 0.00 | 0.00 | 47 | 1012.1 |
| 20260503025305 | 52 | 16 | 0.0 | 0.0 | 0.00 | 0.00 | 0.00 | 47 | 1012.1 |
| 20260503025145 | 52 | 16 | 0.0 | 0.0 | 0.00 | 0.00 | 0.00 | 48 | 1012.1 |
| 20260503025108 | 53 | 16 | 0.0 | 0.0 | 0.00 | 0.00 | 0.00 | 49 | 1012.1 |
| 20260503025008 | 53 | 16 | 0.0 | 0.0 | 0.00 | 0.00 | 0.00 | 48 | 1012.1 |
| 20260503024824 | 53 | 18 | 0.0 | 0.0 | 0.00 | 0.00 | 0.00 | 48 | 1012.1 |
| 20260503024747 | 53 | 18 | 0.0 | 0.0 | 0.00 | 0.00 | 0.00 | 48 | 1012.1 |
| 20260503024629 | 53 | 18 | 0.0 | 0.0 | 0.00 | 0.00 | 0.00 | 48 | 1012.1 |
| 20260503024531 | 53 | 18 | 0.0 | 0.0 | 0.00 | 0.00 | 0.00 | 48 | 1012.1 |
| 20260503024448 | 53 | 18 | 0.0 | 0.0 | 0.00 | 0.00 | 0.00 | 49 | 1012.1 |
| 20260503024329 | 53 | 18 | 0.0 | 0.0 | 0.00 | 0.00 | 0.00 | 50 | 1012.1 |
| 20260503024227 | 53 | 18 | 0.0 | 0.0 | 0.00 | 0.00 | 0.00 | 48 | 1012.1 |
| 20260503024128 | 53 | 18 | 0.0 | 0.0 | 0.00 | 0.00 | 0.00 | 48 | 1012.1 |
| 20260503024026 | 53 | 18 | 0.0 | 0.0 | 0.00 | 0.00 | 0.00 | 47 | 1012.1 |
| 20260503023931 | 53 | 18 | 0.0 | 0.0 | 0.00 | 0.00 | 0.00 | 47 | 1012.1 |
| 20260503023828 | 53 | 18 | 0.0 | 0.0 | 0.00 | 0.00 | 0.00 | 47 | 1012.1 |
| 20260503023730 | 53 | 18 | 0.0 | 0.0 | 0.00 | 0.00 | 0.00 | 48 | 1012.1 |
| 20260503023627 | 53 | 18 | 0.0 | 0.0 | 0.00 | 0.00 | 0.00 | 48 | 1012.1 |
| 20260503023529 | 53 | 18 | 0.0 | 0.0 | 0.00 | 0.00 | 0.00 | 49 | 1012.1 |
| 20260503023426 | 53 | 18 | 0.0 | 0.0 | 0.00 | 0.00 | 0.00 | 47 | 1012.1 |
| 20260503023332 | 53 | 18 | 0.0 | 0.0 | 0.00 | 0.00 | 0.00 | 47 | 1012.1 |
| 20260503023229 | 53 | 18 | 0.0 | 0.0 | 0.00 | 0.00 | 0.00 | 47 | 1012.1 |
| 20260503023131 | 53 | 18 | 0.0 | 0.0 | 0.00 | 0.00 | 0.00 | 48 | 1012.1 |
| 20260503023029 | 53 | 18 | 0.0 | 0.0 | 0.00 | 0.00 | 0.00 | 47 | 1012.1 |
| 20260503022929 | 53 | 18 | 0.0 | 0.0 | 0.00 | 0.00 | 0.00 | 47 | 1012.1 |
| 20260503022848 | 53 | 18 | 0.0 | 0.0 | 0.00 | 0.00 | 0.00 | 48 | 1012.1 |
| 20260503022732 | 53 | 18 | 0.0 | 0.0 | 0.00 | 0.00 | 0.00 | 48 | 1012.1 |
| 20260503022633 | 53 | 21 | 0.0 | 0.0 | 0.00 | 0.00 | 0.00 | 47 | 1012.1 |
| 20260503022535 | 53 | 21 | 0.0 | 0.0 | 0.00 | 0.00 | 0.00 | 47 | 1012.1 |
| 20260503022432 | 53 | 21 | 0.0 | 0.0 | 0.00 | 0.00 | 0.00 | 48 | 1012.1 |
| 20260503022334 | 53 | 21 | 0.0 | 0.0 | 0.00 | 0.00 | 0.00 | 48 | 1012.1 |
| 20260503022233 | 53 | 21 | 0.0 | 0.0 | 0.00 | 0.00 | 0.00 | 48 | 1012.1 |
| 20260503022134 | 53 | 21 | 0.0 | 0.0 | 0.00 | 0.00 | 0.00 | 48 | 1012.1 |
| 20260503022033 | 53 | 21 | 0.0 | 0.0 | 0.00 | 0.00 | 0.00 | 48 | 1012.1 |
| 20260503021937 | 53 | 22 | 0.0 | 0.0 | 0.00 | 0.00 | 0.00 | 48 | 1012.1 |
| 20260503021835 | 53 | 22 | 0.0 | 0.0 | 0.00 | 0.00 | 0.00 | 48 | 1012.1 |
| 20260503021736 | 53 | 22 | 0.0 | 0.0 | 0.00 | 0.00 | 0.00 | 48 | 1012.1 |
| 20260503021636 | 53 | 24 | 0.0 | 0.0 | 0.00 | 0.00 | 0.00 | 49 | 1012.1 |
| 20260503021538 | 53 | 24 | 0.0 | 0.0 | 0.00 | 0.00 | 0.00 | 50 | 1012.1 |
| 20260503021440 | 53 | 24 | 0.0 | 0.0 | 0.00 | 0.00 | 0.00 | 50 | 1012.1 |
| 20260503021348 | 53 | 24 | 0.0 | 0.0 | 0.00 | 0.00 | 0.00 | 48 | 1012.1 |
| 20260503021248 | 53 | 24 | 0.0 | 0.0 | 0.00 | 0.00 | 0.00 | 49 | 1012.1 |
| 20260503021128 | 53 | 24 | 0.0 | 0.0 | 0.00 | 0.00 | 0.00 | 49 | 1012.1 |
| 20260503021027 | 53 | 24 | 0.0 | 0.0 | 0.00 | 0.00 | 0.00 | 48 | 1012.1 |
| 20260503020928 | 53 | 24 | 0.0 | 0.0 | 0.00 | 0.00 | 0.00 | 48 | 1012.1 |
| 20260503020845 | 53 | 24 | 0.0 | 0.0 | 0.00 | 0.00 | 0.00 | 49 | 1012.1 |
| 20260503020747 | 53 | 24 | 0.0 | 0.0 | 0.00 | 0.00 | 0.00 | 49 | 1012.1 |
| 20260503020625 | 53 | 24 | 0.0 | 0.0 | 0.00 | 0.00 | 0.00 | 48 | 1012.1 |
| 20260503020551 | 53 | 24 | 0.0 | 0.0 | 0.00 | 0.00 | 0.00 | 49 | 1012.1 |
| 20260503020427 | 53 | 24 | 0.0 | 0.0 | 0.00 | 0.00 | 0.00 | 50 | 1012.1 |
| 20260503020348 | 53 | 24 | 0.0 | 0.0 | 0.00 | 0.00 | 0.00 | 49 | 1012.1 |
| 20260503020226 | 53 | 24 | 0.0 | 0.0 | 0.00 | 0.00 | 0.00 | 49 | 1012.1 |
| 20260503020128 | 53 | 24 | 0.0 | 0.0 | 0.00 | 0.00 | 0.00 | 50 | 1012.1 |
| 20260503020026 | 53 | 24 | 0.0 | 0.0 | 0.00 | 0.00 | 0.00 | 48 | 1012.1 |
| 20260503015926 | 53 | 24 | 0.0 | 0.0 | 0.00 | 0.00 | 0.00 | 48 | 1012.1 |
| 20260503015832 | 53 | 24 | 0.0 | 0.0 | 0.00 | 0.00 | 0.00 | 48 | 1012.1 |
| 20260503015733 | 53 | 24 | 0.0 | 0.0 | 0.00 | 0.00 | 0.00 | 48 | 1012.1 |
| 20260503015630 | 53 | 24 | 0.0 | 0.0 | 0.00 | 0.00 | 0.00 | 49 | 1012.1 |
| 20260503015533 | 53 | 24 | 0.0 | 0.0 | 0.00 | 0.00 | 0.00 | 49 | 1012.1 |
| 20260503015430 | 53 | 24 | 0.0 | 0.0 | 0.00 | 0.00 | 0.00 | 48 | 1012.1 |
| 20260503015331 | 53 | 24 | 0.0 | 0.0 | 0.00 | 0.00 | 0.00 | 48 | 1012.1 |
| 20260503015232 | 53 | 24 | 0.0 | 0.0 | 0.00 | 0.00 | 0.00 | 49 | 1012.1 |
| 20260503015142 | 54 | 24 | 0.0 | 0.0 | 0.00 | 0.00 | 0.00 | 49 | 1012.1 |
| 20260503015044 | 54 | 24 | 0.0 | 0.0 | 0.00 | 0.00 | 0.00 | 50 | 1012.1 |
| 20260503015005 | 54 | 24 | 0.0 | 0.0 | 0.00 | 0.00 | 0.00 | 50 | 1012.1 |
| 20260503014841 | 54 | 24 | 0.0 | 0.0 | 0.00 | 0.00 | 0.00 | 49 | 1012.1 |
| 20260503014742 | 54 | 24 | 0.0 | 0.0 | 0.00 | 0.00 | 0.00 | 47 | 1012.1 |
| 20260503014641 | 54 | 24 | 0.0 | 0.0 | 0.00 | 0.00 | 0.00 | 47 | 1012.1 |
| 20260503014543 | 54 | 24 | 0.0 | 0.0 | 0.00 | 0.00 | 0.00 | 48 | 1012.1 |
| 20260503014424 | 54 | 24 | 0.0 | 0.0 | 0.00 | 0.00 | 0.00 | 48 | 1012.1 |
| 20260503014325 | 54 | 24 | 0.0 | 0.0 | 0.00 | 0.00 | 0.00 | 48 | 1011.9 |
| 20260503014227 | 54 | 24 | 0.0 | 0.0 | 0.00 | 0.00 | 0.00 | 49 | 1011.9 |
| 20260503014129 | 54 | 24 | 0.0 | 0.0 | 0.00 | 0.00 | 0.00 | 49 | 1011.9 |
| 20260503014027 | 54 | 24 | 0.0 | 0.0 | 0.00 | 0.00 | 0.00 | 47 | 1011.9 |
| 20260503013928 | 54 | 24 | 0.0 | 0.0 | 0.00 | 0.00 | 0.00 | 47 | 1011.9 |
| 20260503013831 | 54 | 24 | 0.0 | 0.0 | 0.00 | 0.00 | 0.00 | 48 | 1011.9 |
| 20260503013733 | 54 | 24 | 0.0 | 0.0 | 0.00 | 0.00 | 0.00 | 48 | 1011.9 |
| 20260503013634 | 54 | 24 | 0.0 | 0.0 | 0.00 | 0.00 | 0.00 | 47 | 1011.9 |
| 20260503013536 | 54 | 24 | 0.0 | 0.0 | 0.00 | 0.00 | 0.00 | 48 | 1011.9 |
| 20260503013432 | 54 | 24 | 0.0 | 0.0 | 0.00 | 0.00 | 0.00 | 48 | 1011.9 |
| 20260503013334 | 54 | 24 | 0.0 | 0.0 | 0.00 | 0.00 | 0.00 | 48 | 1011.9 |
| 20260503013238 | 54 | 24 | 0.0 | 0.0 | 0.00 | 0.00 | 0.00 | 48 | 1011.9 |
| 20260503013139 | 54 | 24 | 0.0 | 0.0 | 0.00 | 0.00 | 0.00 | 48 | 1011.9 |
| 20260503013038 | 54 | 24 | 0.0 | 0.0 | 0.00 | 0.00 | 0.00 | 48 | 1011.9 |
| 20260503012938 | 54 | 24 | 0.0 | 0.0 | 0.00 | 0.00 | 0.00 | 50 | 1011.9 |
| 20260503012835 | 54 | 24 | 0.0 | 0.0 | 0.00 | 0.00 | 0.00 | 47 | 1012.1 |
| 20260503012737 | 54 | 24 | 0.0 | 0.0 | 0.00 | 0.00 | 0.00 | 47 | 1012.1 |
| 20260503012634 | 54 | 25 | 0.0 | 0.0 | 0.00 | 0.00 | 0.00 | 47 | 1012.1 |
| 20260503012541 | 54 | 25 | 0.0 | 0.0 | 0.00 | 0.00 | 0.00 | 47 | 1012.1 |
| 20260503012438 | 54 | 25 | 0.0 | 0.0 | 0.00 | 0.00 | 0.00 | 47 | 1012.1 |
| 20260503012338 | 54 | 25 | 0.0 | 0.0 | 0.00 | 0.00 | 0.00 | 47 | 1012.1 |
| 20260503012301 | 54 | 25 | 0.0 | 0.0 | 0.00 | 0.00 | 0.00 | 47 | 1012.1 |
| 20260503012141 | 54 | 25 | 0.0 | 0.0 | 0.00 | 0.00 | 0.00 | 48 | 1012.1 |
| 20260503012043 | 55 | 25 | 0.0 | 0.0 | 0.00 | 0.00 | 0.00 | 47 | 1012.1 |
| 20260503011928 | 55 | 25 | 0.0 | 0.0 | 0.00 | 0.00 | 0.00 | 47 | 1012.1 |
| 20260503011825 | 55 | 25 | 0.0 | 0.0 | 0.00 | 0.00 | 0.00 | 47 | 1012.1 |
| 20260503011727 | 55 | 25 | 0.0 | 0.0 | 0.00 | 0.00 | 0.00 | 47 | 1012.1 |
| 20260503011628 | 55 | 25 | 0.0 | 0.0 | 0.00 | 0.00 | 0.00 | 48 | 1012.1 |
| 20260503011531 | 55 | 25 | 0.0 | 0.0 | 0.00 | 0.00 | 0.00 | 47 | 1012.1 |
| 20260503011430 | 55 | 25 | 0.0 | 0.0 | 0.00 | 0.00 | 0.00 | 47 | 1012.1 |
| 20260503011332 | 55 | 25 | 0.0 | 0.0 | 0.00 | 0.00 | 0.00 | 46 | 1011.8 |
| 20260503011235 | 55 | 25 | 0.0 | 0.0 | 0.00 | 0.00 | 0.00 | 48 | 1011.8 |
| 20260503011135 | 55 | 25 | 0.0 | 0.0 | 0.00 | 0.00 | 0.00 | 47 | 1011.8 |
| 20260503011034 | 55 | 26 | 0.0 | 0.0 | 0.00 | 0.00 | 0.00 | 46 | 1011.8 |
| 20260503010934 | 55 | 26 | 0.0 | 0.0 | 0.00 | 0.00 | 0.00 | 46 | 1011.8 |
| 20260503010836 | 55 | 26 | 0.0 | 0.0 | 0.00 | 0.00 | 0.00 | 48 | 1011.8 |
| 20260503010738 | 55 | 26 | 0.0 | 0.0 | 0.00 | 0.00 | 0.00 | 46 | 1011.8 |
| 20260503010624 | 55 | 26 | 0.0 | 0.0 | 0.00 | 0.00 | 0.00 | 46 | 1011.8 |
| 20260503010526 | 55 | 26 | 0.0 | 0.0 | 0.00 | 0.00 | 0.00 | 47 | 1011.8 |
| 20260503010446 | 55 | 26 | 0.0 | 0.0 | 0.00 | 0.00 | 0.00 | 47 | 1011.8 |
| 20260503010326 | 55 | 26 | 0.0 | 0.0 | 0.00 | 0.00 | 0.00 | 46 | 1011.8 |
| 20260503010228 | 55 | 26 | 0.0 | 0.0 | 0.00 | 0.00 | 0.00 | 46 | 1011.8 |
| 20260503010129 | 55 | 26 | 0.0 | 0.0 | 0.00 | 0.00 | 0.00 | 46 | 1011.8 |
| 20260503010052 | 55 | 26 | 0.0 | 0.0 | 0.00 | 0.00 | 0.00 | 46 | 1011.8 |
| 20260503005934 | 55 | 26 | 0.0 | 0.0 | 0.00 | 0.00 | 0.00 | 46 | 1011.8 |
| 20260503005835 | 55 | 26 | 0.0 | 0.0 | 0.00 | 0.00 | 0.00 | 46 | 1011.6 |
| 20260503005735 | 55 | 26 | 0.0 | 0.0 | 0.00 | 0.00 | 0.00 | 46 | 1011.6 |
| 20260503005634 | 55 | 26 | 0.0 | 0.0 | 0.00 | 0.00 | 0.00 | 48 | 1011.6 |
| 20260503005536 | 55 | 26 | 0.0 | 0.0 | 0.00 | 0.00 | 0.00 | 48 | 1011.6 |
| 20260503005434 | 55 | 26 | 0.0 | 0.0 | 0.00 | 0.00 | 0.00 | 46 | 1011.6 |
| 20260503005335 | 55 | 26 | 0.0 | 0.0 | 0.00 | 0.00 | 0.00 | 46 | 1011.6 |
| 20260503005236 | 55 | 26 | 0.0 | 0.0 | 0.00 | 0.00 | 0.00 | 45 | 1011.6 |
| 20260503005138 | 55 | 26 | 0.0 | 0.0 | 0.00 | 0.00 | 0.00 | 46 | 1011.6 |
| 20260503005037 | 55 | 30 | 0.0 | 0.0 | 0.00 | 0.00 | 0.00 | 46 | 1011.6 |
| 20260503004937 | 55 | 30 | 0.0 | 0.0 | 0.00 | 0.00 | 0.00 | 46 | 1011.6 |
| 20260503004835 | 55 | 30 | 0.0 | 0.0 | 0.00 | 0.00 | 0.00 | 46 | 1011.6 |
| 20260503004738 | 55 | 30 | 0.0 | 0.0 | 0.00 | 0.00 | 0.00 | 46 | 1011.6 |
| 20260503004643 | 55 | 30 | 0.0 | 0.0 | 0.00 | 0.00 | 0.00 | 46 | 1011.6 |
| 20260503004546 | 55 | 30 | 0.0 | 0.0 | 0.00 | 0.00 | 0.00 | 46 | 1011.6 |
| 20260503004443 | 55 | 30 | 0.0 | 0.0 | 0.00 | 0.00 | 0.00 | 46 | 1011.6 |
| 20260503004345 | 55 | 30 | 0.0 | 0.0 | 0.00 | 0.00 | 0.00 | 47 | 1011.5 |
| 20260503004243 | 55 | 30 | 0.0 | 0.0 | 0.00 | 0.00 | 0.00 | 46 | 1011.5 |
| 20260503004145 | 55 | 30 | 0.0 | 0.0 | 0.00 | 0.00 | 0.00 | 46 | 1011.5 |
| 20260503004027 | 55 | 311 | 0.0 | 0.0 | 0.00 | 0.00 | 0.00 | 47 | 1011.5 |
| 20260503003926 | 56 | 311 | 0.0 | 0.0 | 0.00 | 0.00 | 0.00 | 47 | 1011.5 |
| 20260503003849 | 56 | 311 | 0.0 | 0.0 | 0.00 | 0.00 | 0.00 | 46 | 1011.5 |
| 20260503003730 | 56 | 311 | 0.0 | 0.0 | 0.00 | 0.00 | 0.00 | 46 | 1011.5 |
| 20260503003628 | 56 | 311 | 0.0 | 0.0 | 0.00 | 0.00 | 0.00 | 45 | 1011.5 |
| 20260503003533 | 56 | 311 | 0.0 | 0.0 | 0.00 | 0.00 | 0.00 | 45 | 1011.5 |
| 20260503003430 | 56 | 311 | 0.0 | 0.0 | 0.00 | 0.00 | 0.00 | 44 | 1011.5 |
| 20260503003336 | 56 | 311 | 0.0 | 0.0 | 0.00 | 0.00 | 0.00 | 45 | 1011.5 |
| 20260503003234 | 56 | 311 | 0.0 | 0.0 | 0.00 | 0.00 | 0.00 | 44 | 1011.5 |
| 20260503003135 | 56 | 311 | 0.0 | 0.0 | 0.00 | 0.00 | 0.00 | 44 | 1011.5 |
| 20260503003034 | 56 | 311 | 0.0 | 0.0 | 0.00 | 0.00 | 0.00 | 45 | 1011.5 |
| 20260503002935 | 56 | 311 | 0.0 | 0.0 | 0.00 | 0.00 | 0.00 | 44 | 1011.5 |
| 20260503002832 | 56 | 311 | 0.0 | 0.0 | 0.00 | 0.00 | 0.00 | 45 | 1011.2 |
| 20260503002735 | 56 | 311 | 0.0 | 0.0 | 0.00 | 0.00 | 0.00 | 44 | 1011.2 |
| 20260503002656 | 56 | 311 | 0.0 | 0.0 | 0.00 | 0.00 | 0.00 | 45 | 1011.2 |
| 20260503002536 | 56 | 311 | 0.0 | 0.0 | 0.00 | 0.00 | 0.00 | 45 | 1011.2 |
| 20260503002454 | 56 | 311 | 0.0 | 0.0 | 0.00 | 0.00 | 0.00 | 45 | 1011.2 |
| 20260503002355 | 56 | 311 | 0.0 | 0.0 | 0.00 | 0.00 | 0.00 | 45 | 1011.2 |
| 20260503002252 | 56 | 311 | 0.0 | 0.0 | 0.00 | 0.00 | 0.00 | 44 | 1011.2 |
| 20260503002133 | 56 | 311 | 0.0 | 0.0 | 0.00 | 0.00 | 0.00 | 45 | 1011.2 |
| 20260503002031 | 56 | 311 | 0.0 | 0.0 | 0.00 | 0.00 | 0.00 | 45 | 1011.2 |
| 20260503001933 | 56 | 311 | 0.0 | 0.0 | 0.00 | 0.00 | 0.00 | 44 | 1011.2 |
| 20260503001834 | 56 | 311 | 0.0 | 0.0 | 0.00 | 0.00 | 0.00 | 44 | 1011.2 |
| 20260503001736 | 56 | 311 | 0.0 | 0.0 | 0.00 | 0.00 | 0.00 | 44 | 1011.2 |
| 20260503001633 | 56 | 311 | 0.0 | 0.0 | 0.00 | 0.00 | 0.00 | 44 | 1011.2 |
| 20260503001536 | 56 | 311 | 0.0 | 0.0 | 0.00 | 0.00 | 0.00 | 44 | 1011.2 |
| 20260503001432 | 56 | 311 | 0.0 | 0.0 | 0.00 | 0.00 | 0.00 | 44 | 1011.2 |
| 20260503001335 | 56 | 311 | 0.0 | 0.0 | 0.00 | 0.00 | 0.00 | 44 | 1011.2 |
| 20260503001236 | 56 | 311 | 0.0 | 0.0 | 0.00 | 0.00 | 0.00 | 43 | 1011.2 |
| 20260503001143 | 56 | 311 | 0.0 | 0.0 | 0.00 | 0.00 | 0.00 | 44 | 1011.2 |
| 20260503001103 | 56 | 311 | 0.0 | 0.0 | 0.00 | 0.00 | 0.00 | 43 | 1011.2 |
| 20260503000943 | 56 | 311 | 0.0 | 0.0 | 0.00 | 0.00 | 0.00 | 43 | 1011.2 |
| 20260503000843 | 56 | 311 | 0.0 | 0.0 | 0.00 | 0.00 | 0.00 | 43 | 1011.2 |
| 20260503000725 | 56 | 311 | 0.0 | 0.0 | 0.00 | 0.00 | 0.00 | 43 | 1011.2 |
| 20260503000626 | 56 | 311 | 0.0 | 0.0 | 0.00 | 0.00 | 0.00 | 44 | 1011.2 |
| 20260503000533 | 56 | 306 | 0.0 | 0.0 | 0.00 | 0.00 | 0.00 | 43 | 1011.2 |
| 20260503000449 | 56 | 306 | 0.0 | 0.0 | 0.00 | 0.00 | 0.00 | 44 | 1011.2 |
| 20260503000330 | 56 | 306 | 0.0 | 0.0 | 0.00 | 0.00 | 0.00 | 43 | 1011.2 |
| 20260503000229 | 56 | 306 | 0.0 | 0.0 | 0.00 | 0.00 | 0.00 | 45 | 1011.2 |
| 20260503000133 | 56 | 306 | 0.0 | 0.0 | 0.00 | 0.00 | 0.00 | 44 | 1011.2 |
| 20260503000034 | 57 | 306 | 0.0 | 0.0 | 0.00 | 0.00 | 0.00 | 45 | 1011.2 |
| 20260502235934 | 57 | 306 | 0.0 | 0.0 | 0.00 | 0.00 | 0.00 | 44 | 1011.2 |
| 20260502235857 | 57 | 306 | 0.0 | 0.0 | 0.00 | 0.00 | 0.00 | 44 | 1011.1 |
| 20260502235742 | 57 | 306 | 0.0 | 0.0 | 0.00 | 0.00 | 0.00 | 44 | 1011.1 |
| 20260502235639 | 57 | 306 | 0.0 | 0.0 | 0.00 | 0.00 | 0.00 | 44 | 1011.1 |
| 20260502235541 | 57 | 306 | 0.0 | 0.0 | 0.00 | 0.00 | 0.00 | 43 | 1011.1 |
| 20260502235437 | 57 | 306 | 0.0 | 0.0 | 0.00 | 0.00 | 0.00 | 43 | 1011.1 |
| 20260502235340 | 57 | 306 | 0.0 | 0.0 | 0.00 | 0.00 | 0.00 | 43 | 1011.1 |
| 20260502235239 | 57 | 306 | 0.0 | 0.0 | 0.00 | 0.00 | 0.00 | 43 | 1011.1 |
| 20260502235144 | 57 | 306 | 0.0 | 0.0 | 0.00 | 0.00 | 0.00 | 43 | 1011.1 |
| 20260502235105 | 57 | 306 | 0.0 | 0.0 | 0.00 | 0.00 | 0.00 | 45 | 1011.1 |
| 20260502234924 | 57 | 306 | 0.0 | 0.0 | 0.00 | 0.00 | 0.00 | 42 | 1011.1 |
| 20260502234825 | 57 | 306 | 0.0 | 0.0 | 0.00 | 0.00 | 0.00 | 42 | 1011.1 |
| 20260502234727 | 57 | 306 | 0.0 | 0.0 | 0.00 | 0.00 | 0.00 | 42 | 1011.1 |
| 20260502234628 | 57 | 306 | 0.0 | 0.0 | 0.00 | 0.00 | 0.00 | 43 | 1011.1 |
| 20260502234530 | 57 | 306 | 0.0 | 0.0 | 0.00 | 0.00 | 0.00 | 42 | 1011.1 |
| 20260502234431 | 57 | 306 | 0.0 | 0.0 | 0.00 | 0.00 | 0.00 | 42 | 1011.1 |
| 20260502234332 | 57 | 306 | 0.0 | 0.0 | 0.00 | 0.00 | 0.00 | 43 | 1011.1 |
| 20260502234230 | 57 | 306 | 0.0 | 0.0 | 0.00 | 0.00 | 0.00 | 41 | 1011.1 |
| 20260502234132 | 57 | 306 | 0.0 | 0.0 | 0.00 | 0.00 | 0.00 | 41 | 1011.1 |
| 20260502234054 | 57 | 306 | 0.0 | 0.0 | 0.00 | 0.00 | 0.00 | 41 | 1011.1 |
| 20260502233932 | 57 | 306 | 0.0 | 0.0 | 0.00 | 0.00 | 0.00 | 41 | 1011.1 |
| 20260502233830 | 57 | 306 | 0.0 | 0.0 | 0.00 | 0.00 | 0.00 | 41 | 1011.1 |
| 20260502233735 | 58 | 306 | 0.0 | 0.0 | 0.00 | 0.00 | 0.00 | 42 | 1011.1 |
| 20260502233637 | 58 | 306 | 0.0 | 0.0 | 0.00 | 0.00 | 0.00 | 42 | 1011.1 |
| 20260502233540 | 58 | 306 | 0.0 | 0.0 | 0.00 | 0.00 | 0.00 | 41 | 1011.1 |
| 20260502233503 | 58 | 306 | 0.0 | 0.0 | 0.00 | 0.00 | 0.00 | 41 | 1011.1 |
| 20260502233404 | 58 | 306 | 0.0 | 0.0 | 0.00 | 0.00 | 0.00 | 41 | 1011.1 |
| 20260502233242 | 58 | 306 | 0.0 | 0.0 | 0.00 | 0.00 | 0.00 | 40 | 1011.1 |
| 20260502233144 | 58 | 306 | 0.0 | 0.0 | 0.00 | 0.00 | 0.00 | 41 | 1011.1 |
| 20260502233026 | 58 | 305 | 0.0 | 0.0 | 0.00 | 0.00 | 0.00 | 41 | 1011.1 |
| 20260502232946 | 58 | 304 | 0.0 | 0.0 | 0.00 | 0.00 | 0.00 | 41 | 1011.1 |
| 20260502232824 | 58 | 304 | 0.0 | 0.0 | 0.00 | 0.00 | 0.00 | 41 | 1011.2 |
| 20260502232726 | 58 | 304 | 0.0 | 0.0 | 0.00 | 0.00 | 0.00 | 41 | 1011.2 |
| 20260502232627 | 58 | 304 | 0.0 | 0.0 | 0.00 | 0.00 | 0.00 | 40 | 1011.2 |
| 20260502232529 | 58 | 304 | 0.0 | 0.0 | 0.00 | 0.00 | 0.00 | 40 | 1011.2 |
| 20260502232429 | 58 | 304 | 0.0 | 0.0 | 0.00 | 0.00 | 0.00 | 40 | 1011.2 |
| 20260502232331 | 58 | 304 | 0.0 | 0.0 | 0.00 | 0.00 | 0.00 | 40 | 1011.2 |
| 20260502232229 | 58 | 304 | 0.0 | 0.0 | 0.00 | 0.00 | 0.00 | 40 | 1011.2 |
| 20260502232130 | 58 | 304 | 0.0 | 0.0 | 0.00 | 0.00 | 0.00 | 41 | 1011.2 |
| 20260502232028 | 58 | 304 | 0.0 | 0.0 | 0.00 | 0.00 | 0.00 | 40 | 1011.2 |
| 20260502231928 | 58 | 305 | 0.0 | 0.0 | 0.00 | 0.00 | 0.00 | 39 | 1011.2 |
| 20260502231850 | 58 | 305 | 0.0 | 0.0 | 0.00 | 0.00 | 0.00 | 41 | 1011.2 |
| 20260502231734 | 58 | 305 | 0.0 | 0.0 | 0.00 | 0.00 | 0.00 | 41 | 1011.2 |
| 20260502231631 | 59 | 304 | 0.0 | 0.0 | 0.00 | 0.00 | 0.00 | 40 | 1011.2 |
| 20260502231533 | 58 | 304 | 0.0 | 0.0 | 0.00 | 0.00 | 0.00 | 39 | 1011.2 |
| 20260502231430 | 59 | 304 | 0.0 | 0.0 | 0.00 | 0.00 | 0.00 | 40 | 1011.2 |
| 20260502231332 | 59 | 305 | 0.0 | 0.0 | 0.00 | 0.00 | 0.00 | 40 | 1011.1 |
| 20260502231230 | 59 | 305 | 0.0 | 0.0 | 0.00 | 0.00 | 0.00 | 40 | 1011.1 |
| 20260502231132 | 59 | 305 | 0.0 | 0.0 | 0.00 | 0.00 | 0.00 | 40 | 1011.1 |
| 20260502231038 | 59 | 305 | 0.0 | 0.0 | 0.00 | 0.00 | 0.00 | 39 | 1011.1 |
| 20260502230939 | 59 | 305 | 0.0 | 0.0 | 0.00 | 0.00 | 0.00 | 39 | 1011.1 |
| 20260502230837 | 59 | 305 | 0.0 | 0.0 | 0.00 | 0.00 | 0.00 | 39 | 1011.1 |
| 20260502230741 | 59 | 325 | 0.0 | 0.0 | 0.00 | 0.00 | 0.00 | 39 | 1011.1 |
| 20260502230543 | 59 | 325 | 0.0 | 0.0 | 0.00 | 0.00 | 0.00 | 39 | 1011.1 |
| 20260502230444 | 59 | 325 | 0.0 | 0.0 | 0.00 | 0.00 | 0.00 | 39 | 1011.1 |
| 20260502230350 | 59 | 296 | 0.0 | 0.0 | 0.00 | 0.00 | 0.00 | 39 | 1011.1 |
| 20260502230227 | 59 | 296 | 0.0 | 0.0 | 0.00 | 0.00 | 0.00 | 38 | 1011.1 |
| 20260502230128 | 59 | 296 | 0.0 | 0.0 | 0.00 | 0.00 | 0.00 | 39 | 1011.1 |
| 20260502230030 | 59 | 296 | 0.0 | 0.0 | 0.00 | 0.00 | 0.00 | 39 | 1011.1 |
| 20260502225940 | 59 | 296 | 0.0 | 0.0 | 0.00 | 0.00 | 0.00 | 39 | 1011.1 |
| 20260502225848 | 59 | 296 | 0.0 | 0.0 | 0.00 | 0.00 | 0.00 | 38 | 1010.9 |
| 20260502225729 | 59 | 296 | 0.0 | 0.0 | 0.00 | 0.00 | 0.00 | 38 | 1010.9 |
| 20260502225630 | 59 | 296 | 0.0 | 0.0 | 0.00 | 0.00 | 0.00 | 38 | 1010.9 |
| 20260502225532 | 59 | 296 | 0.0 | 0.0 | 0.00 | 0.00 | 0.00 | 38 | 1010.9 |
| 20260502225452 | 59 | 296 | 0.0 | 0.0 | 0.00 | 0.00 | 0.00 | 38 | 1010.9 |
| 20260502225331 | 59 | 290 | 0.0 | 0.0 | 0.00 | 0.00 | 0.00 | 38 | 1010.9 |
| 20260502225230 | 59 | 301 | 0.9 | 0.0 | 0.00 | 0.00 | 0.00 | 38 | 1010.9 |
| 20260502225134 | 59 | 301 | 0.9 | 0.0 | 0.00 | 0.00 | 0.00 | 37 | 1010.9 |
| 20260502225053 | 60 | 295 | 0.9 | 0.0 | 0.00 | 0.00 | 0.00 | 37 | 1010.9 |
| 20260502224932 | 60 | 296 | 0.9 | 0.0 | 0.00 | 0.00 | 0.00 | 37 | 1010.9 |
| 20260502224835 | 60 | 1 | 0.9 | 0.0 | 0.00 | 0.00 | 0.00 | 37 | 1010.9 |
| 20260502224736 | 60 | 1 | 0.9 | 0.0 | 0.00 | 0.00 | 0.00 | 37 | 1010.9 |
| 20260502224657 | 60 | 336 | 0.9 | 0.0 | 0.00 | 0.00 | 0.00 | 38 | 1010.9 |
| 20260502224540 | 60 | 338 | 0.9 | 0.0 | 0.00 | 0.00 | 0.00 | 37 | 1010.9 |
| 20260502224440 | 60 | 338 | 0.9 | 0.0 | 0.00 | 0.00 | 0.00 | 36 | 1010.9 |
| 20260502224341 | 60 | 345 | 0.9 | 0.0 | 0.00 | 0.00 | 0.00 | 36 | 1010.7 |
| 20260502224303 | 60 | 326 | 0.9 | 0.0 | 0.00 | 0.00 | 0.00 | 36 | 1010.7 |
| 20260502224126 | 60 | 336 | 0.9 | 0.0 | 0.00 | 0.00 | 0.00 | 36 | 1010.7 |
| 20260502224048 | 61 | 345 | 0.9 | 0.0 | 0.00 | 0.00 | 0.00 | 36 | 1010.7 |
| 20260502223928 | 61 | 285 | 0.0 | 0.0 | 0.00 | 0.00 | 0.00 | 36 | 1010.7 |
| 20260502223825 | 61 | 5 | 0.0 | 0.0 | 0.00 | 0.00 | 0.00 | 36 | 1010.7 |
| 20260502223746 | 61 | 6 | 0.0 | 0.0 | 0.00 | 0.00 | 0.00 | 37 | 1010.7 |
| 20260502223626 | 61 | 6 | 0.0 | 0.0 | 0.00 | 0.00 | 0.00 | 36 | 1010.7 |
| 20260502223528 | 61 | 6 | 0.0 | 0.0 | 0.00 | 0.00 | 0.00 | 36 | 1010.7 |
| 20260502223432 | 61 | 320 | 0.0 | 0.0 | 0.00 | 0.00 | 0.00 | 35 | 1010.7 |
| 20260502223334 | 61 | 276 | 0.0 | 0.0 | 0.00 | 0.00 | 0.00 | 36 | 1010.7 |
| 20260502223232 | 62 | 276 | 0.0 | 0.0 | 0.00 | 0.00 | 0.00 | 35 | 1010.7 |
| 20260502223153 | 62 | 276 | 0.0 | 0.0 | 0.00 | 0.00 | 0.00 | 36 | 1010.7 |
| 20260502223033 | 61 | 275 | 0.0 | 0.0 | 0.00 | 0.00 | 0.00 | 36 | 1010.7 |
| 20260502222934 | 61 | 275 | 0.0 | 0.0 | 0.00 | 0.00 | 0.00 | 36 | 1010.7 |
| 20260502222832 | 61 | 275 | 0.0 | 0.0 | 0.00 | 0.00 | 0.00 | 37 | 1010.7 |
| 20260502222737 | 61 | 275 | 0.0 | 0.0 | 0.00 | 0.00 | 0.00 | 36 | 1010.7 |
| 20260502222638 | 61 | 275 | 0.9 | 0.0 | 0.00 | 0.00 | 0.00 | 36 | 1010.7 |
| 20260502222540 | 61 | 275 | 0.9 | 0.0 | 0.00 | 0.00 | 0.00 | 36 | 1010.7 |
| 20260502222437 | 61 | 275 | 0.9 | 0.0 | 0.00 | 0.00 | 0.00 | 36 | 1010.7 |
| 20260502222338 | 61 | 274 | 0.9 | 0.0 | 0.00 | 0.00 | 0.00 | 37 | 1010.7 |
| 20260502222236 | 61 | 274 | 0.9 | 0.0 | 0.00 | 0.00 | 0.00 | 37 | 1010.7 |
| 20260502222137 | 61 | 274 | 0.9 | 0.0 | 0.00 | 0.00 | 0.00 | 37 | 1010.7 |
| 20260502222043 | 60 | 274 | 0.9 | 0.0 | 0.00 | 0.00 | 0.00 | 36 | 1010.7 |
| 20260502221942 | 60 | 274 | 0.9 | 0.0 | 0.00 | 0.00 | 0.00 | 36 | 1010.7 |
| 20260502221840 | 60 | 314 | 0.9 | 0.0 | 0.00 | 0.00 | 0.00 | 36 | 1010.7 |
| 20260502221743 | 60 | 314 | 0.9 | 0.0 | 0.00 | 0.00 | 0.00 | 36 | 1010.7 |
| 20260502221704 | 60 | 314 | 0.9 | 0.0 | 0.00 | 0.00 | 0.00 | 36 | 1010.7 |
| 20260502221525 | 60 | 302 | 0.9 | 0.0 | 0.00 | 0.00 | 0.00 | 36 | 1010.7 |
| 20260502221429 | 60 | 302 | 0.9 | 0.0 | 0.00 | 0.00 | 0.00 | 36 | 1010.7 |
| 20260502221331 | 60 | 302 | 0.9 | 0.0 | 0.00 | 0.00 | 0.00 | 36 | 1010.9 |
| 20260502221231 | 60 | 303 | 0.9 | 0.0 | 0.00 | 0.00 | 0.00 | 36 | 1010.9 |
| 20260502221134 | 60 | 340 | 0.9 | 0.0 | 0.00 | 0.00 | 0.00 | 36 | 1010.9 |
| 20260502221056 | 60 | 339 | 0.9 | 0.0 | 0.00 | 0.00 | 0.00 | 37 | 1010.9 |
| 20260502220939 | 60 | 336 | 0.9 | 0.0 | 0.00 | 0.00 | 0.00 | 36 | 1010.9 |
| 20260502220837 | 60 | 308 | 0.9 | 0.0 | 0.00 | 0.00 | 0.00 | 36 | 1010.9 |
| 20260502220743 | 60 | 315 | 0.9 | 0.0 | 0.00 | 0.00 | 0.00 | 36 | 1010.9 |
| 20260502220643 | 60 | 316 | 0.9 | 0.0 | 0.00 | 0.00 | 0.00 | 35 | 1010.9 |
| 20260502220559 | 60 | 288 | 0.9 | 0.0 | 0.00 | 0.00 | 0.00 | 35 | 1010.9 |
| 20260502220342 | 61 | 313 | 0.9 | 0.0 | 0.00 | 0.00 | 0.00 | 35 | 1010.9 |
| 20260502220243 | 61 | 314 | 0.9 | 0.0 | 0.00 | 0.00 | 0.00 | 35 | 1010.9 |
| 20260502220207 | 61 | 301 | 0.9 | 0.0 | 0.00 | 0.00 | 0.00 | 37 | 1010.9 |
| 20260502220029 | 61 | 274 | 0.9 | 0.0 | 0.00 | 0.00 | 0.00 | 37 | 1010.9 |
| 20260502215930 | 61 | 274 | 0.9 | 0.0 | 0.00 | 0.00 | 0.00 | 38 | 1010.9 |
| 20260502215849 | 61 | 269 | 0.9 | 0.0 | 0.00 | 0.00 | 0.00 | 37 | 1011.0 |
| 20260502215730 | 61 | 269 | 0.9 | 0.0 | 0.00 | 0.00 | 0.00 | 36 | 1011.0 |
| 20260502215628 | 61 | 256 | 0.9 | 0.0 | 0.00 | 0.00 | 0.00 | 36 | 1011.0 |
| 20260502215550 | 61 | 345 | 0.9 | 0.0 | 0.00 | 0.00 | 0.00 | 36 | 1011.0 |
| 20260502215428 | 61 | 293 | 0.9 | 0.0 | 0.00 | 0.00 | 0.00 | 37 | 1011.0 |
| 20260502215333 | 61 | 278 | 0.9 | 0.0 | 0.00 | 0.00 | 0.00 | 37 | 1011.0 |
| 20260502215252 | 60 | 290 | 0.9 | 0.0 | 0.00 | 0.00 | 0.00 | 37 | 1011.0 |
| 20260502215131 | 60 | 290 | 0.9 | 0.0 | 0.00 | 0.00 | 0.00 | 38 | 1011.0 |
| 20260502215031 | 60 | 290 | 0.9 | 0.0 | 0.00 | 0.00 | 0.00 | 37 | 1011.0 |
| 20260502214952 | 60 | 345 | 1.7 | 0.0 | 0.00 | 0.00 | 0.00 | 37 | 1011.0 |
| 20260502214832 | 60 | 193 | 1.7 | 0.0 | 0.00 | 0.00 | 0.00 | 36 | 1011.0 |
| 20260502214734 | 60 | 313 | 1.7 | 0.0 | 0.00 | 0.00 | 0.00 | 36 | 1011.0 |
| 20260502214652 | 60 | 305 | 0.9 | 0.0 | 0.00 | 0.00 | 0.00 | 36 | 1011.0 |
| 20260502214538 | 60 | 316 | 0.9 | 0.0 | 0.00 | 0.00 | 0.00 | 36 | 1011.0 |
| 20260502214454 | 60 | 309 | 0.9 | 0.0 | 0.00 | 0.00 | 0.00 | 36 | 1011.0 |
| 20260502214335 | 60 | 292 | 0.9 | 0.0 | 0.00 | 0.00 | 0.00 | 36 | 1011.0 |
| 20260502214252 | 60 | 278 | 0.9 | 0.0 | 0.00 | 0.00 | 0.00 | 36 | 1011.0 |
| 20260502214132 | 60 | 278 | 0.9 | 0.0 | 0.00 | 0.00 | 0.00 | 35 | 1011.0 |
| 20260502214031 | 60 | 333 | 0.9 | 0.0 | 0.00 | 0.00 | 0.00 | 36 | 1011.0 |
| 20260502213931 | 60 | 282 | 0.9 | 0.0 | 0.00 | 0.00 | 0.00 | 36 | 1011.0 |
| 20260502213830 | 60 | 345 | 0.9 | 0.0 | 0.00 | 0.00 | 0.00 | 37 | 1011.0 |
| 20260502213736 | 60 | 310 | 0.9 | 0.0 | 0.00 | 0.00 | 0.00 | 37 | 1011.0 |
| 20260502213658 | 60 | 269 | 0.9 | 0.0 | 0.00 | 0.00 | 0.00 | 37 | 1011.0 |
| 20260502213539 | 60 | 269 | 0.9 | 0.0 | 0.00 | 0.00 | 0.00 | 37 | 1011.0 |
| 20260502213439 | 60 | 269 | 0.9 | 0.0 | 0.00 | 0.00 | 0.00 | 37 | 1011.0 |
| 20260502213341 | 60 | 297 | 0.9 | 0.0 | 0.00 | 0.00 | 0.00 | 37 | 1011.0 |
| 20260502213220 | 60 | 286 | 0.0 | 0.0 | 0.00 | 0.00 | 0.00 | 37 | 1011.0 |
| 20260502213130 | 60 | 290 | 0.0 | 0.0 | 0.00 | 0.00 | 0.00 | 37 | 1011.0 |
| 20260502213028 | 60 | 294 | 0.0 | 0.0 | 0.00 | 0.00 | 0.00 | 38 | 1011.0 |
| 20260502212928 | 60 | 294 | 0.9 | 0.0 | 0.00 | 0.00 | 0.00 | 38 | 1011.0 |
| 20260502212830 | 60 | 295 | 0.0 | 0.0 | 0.00 | 0.00 | 0.00 | 37 | 1010.6 |
| 20260502212731 | 60 | 299 | 0.9 | 0.0 | 0.00 | 0.00 | 0.00 | 37 | 1010.6 |
| 20260502212630 | 60 | 299 | 0.9 | 0.0 | 0.00 | 0.00 | 0.00 | 38 | 1010.6 |
| 20260502212532 | 60 | 299 | 0.9 | 0.0 | 0.00 | 0.00 | 0.00 | 39 | 1010.6 |
| 20260502212433 | 60 | 278 | 0.9 | 0.0 | 0.00 | 0.00 | 0.00 | 38 | 1010.6 |
| 20260502212335 | 60 | 279 | 0.9 | 0.0 | 0.00 | 0.00 | 0.00 | 38 | 1010.6 |
| 20260502212253 | 60 | 276 | 0.9 | 0.0 | 0.00 | 0.00 | 0.00 | 38 | 1010.6 |
| 20260502212133 | 60 | 277 | 0.9 | 0.0 | 0.00 | 0.00 | 0.00 | 38 | 1010.6 |
| 20260502212032 | 60 | 280 | 0.9 | 0.0 | 0.00 | 0.00 | 0.00 | 37 | 1010.6 |
| 20260502211932 | 60 | 281 | 0.9 | 0.0 | 0.00 | 0.00 | 0.00 | 38 | 1010.6 |
| 20260502211830 | 60 | 317 | 0.9 | 0.0 | 0.00 | 0.00 | 0.00 | 38 | 1010.6 |
| 20260502211736 | 60 | 338 | 1.7 | 0.0 | 0.00 | 0.00 | 0.00 | 37 | 1010.6 |
| 20260502211633 | 60 | 286 | 1.7 | 0.0 | 0.00 | 0.00 | 0.00 | 38 | 1010.6 |
| 20260502211535 | 60 | 315 | 1.7 | 0.0 | 0.00 | 0.00 | 0.00 | 37 | 1010.6 |
| 20260502211437 | 60 | 300 | 1.7 | 0.0 | 0.00 | 0.00 | 0.00 | 38 | 1010.6 |
| 20260502211341 | 60 | 290 | 1.7 | 0.0 | 0.00 | 0.00 | 0.00 | 38 | 1010.6 |
| 20260502211243 | 60 | 285 | 1.7 | 0.0 | 0.00 | 0.00 | 0.00 | 37 | 1010.6 |
| 20260502211128 | 61 | 296 | 0.9 | 0.0 | 0.00 | 0.00 | 0.00 | 36 | 1010.6 |
| 20260502211027 | 61 | 272 | 0.9 | 0.0 | 0.00 | 0.00 | 0.00 | 37 | 1010.6 |
| 20260502210930 | 61 | 334 | 0.9 | 0.0 | 0.00 | 0.00 | 0.00 | 37 | 1010.6 |
| 20260502210829 | 61 | 280 | 0.9 | 0.0 | 0.00 | 0.00 | 0.00 | 37 | 1010.6 |
| 20260502210733 | 61 | 312 | 0.9 | 0.0 | 0.00 | 0.00 | 0.00 | 37 | 1010.6 |
| 20260502210635 | 61 | 263 | 0.9 | 0.0 | 0.00 | 0.00 | 0.00 | 37 | 1010.6 |
| 20260502210540 | 61 | 261 | 0.9 | 0.0 | 0.00 | 0.00 | 0.00 | 37 | 1010.6 |
| 20260502210436 | 61 | 256 | 0.9 | 0.0 | 0.00 | 0.00 | 0.00 | 37 | 1010.6 |
| 20260502210338 | 61 | 280 | 0.9 | 0.0 | 0.00 | 0.00 | 0.00 | 37 | 1010.6 |
| 20260502210236 | 61 | 267 | 0.9 | 0.0 | 0.00 | 0.00 | 0.00 | 37 | 1010.6 |
| 20260502210138 | 61 | 267 | 0.9 | 0.0 | 0.00 | 0.00 | 0.00 | 37 | 1010.6 |
| 20260502210036 | 61 | 267 | 0.9 | 0.0 | 0.00 | 0.00 | 0.00 | 36 | 1010.6 |
| 20260502205936 | 61 | 284 | 0.9 | 0.0 | 0.00 | 0.00 | 0.00 | 37 | 1010.6 |
| 20260502205839 | 61 | 305 | 0.9 | 0.0 | 0.00 | 0.00 | 0.00 | 35 | 1010.5 |
| 20260502205742 | 61 | 313 | 0.0 | 0.0 | 0.00 | 0.00 | 0.00 | 37 | 1010.5 |
| 20260502205623 | 61 | 355 | 0.0 | 0.0 | 0.00 | 0.00 | 0.00 | 37 | 1010.5 |
| 20260502205528 | 61 | 27 | 0.0 | 0.0 | 0.00 | 0.00 | 0.00 | 37 | 1010.5 |
| 20260502205426 | 61 | 345 | 0.0 | 0.0 | 0.00 | 0.00 | 0.00 | 38 | 1010.5 |
| 20260502205327 | 61 | 340 | 0.0 | 0.0 | 0.00 | 0.00 | 0.00 | 37 | 1010.5 |
| 20260502205250 | 61 | 195 | 0.0 | 0.0 | 0.00 | 0.00 | 0.00 | 37 | 1010.5 |
| 20260502205130 | 61 | 193 | 0.9 | 0.0 | 0.00 | 0.00 | 0.00 | 37 | 1010.5 |
| 20260502205028 | 61 | 192 | 0.9 | 0.0 | 0.00 | 0.00 | 0.00 | 37 | 1010.5 |
| 20260502204933 | 61 | 261 | 0.9 | 0.0 | 0.00 | 0.00 | 0.00 | 38 | 1010.5 |
| 20260502204830 | 61 | 212 | 0.9 | 0.0 | 0.00 | 0.00 | 0.00 | 38 | 1010.5 |
| 20260502204752 | 61 | 274 | 0.9 | 0.0 | 0.00 | 0.00 | 0.00 | 38 | 1010.5 |
| 20260502204633 | 60 | 274 | 0.9 | 0.0 | 0.00 | 0.00 | 0.00 | 38 | 1010.5 |
| 20260502204556 | 60 | 274 | 0.9 | 0.0 | 0.00 | 0.00 | 0.00 | 38 | 1010.5 |
| 20260502204435 | 60 | 292 | 0.9 | 0.0 | 0.00 | 0.00 | 0.00 | 38 | 1010.5 |
| 20260502204338 | 60 | 292 | 0.9 | 0.0 | 0.00 | 0.00 | 0.00 | 38 | 1010.7 |
| 20260502204236 | 60 | 292 | 0.9 | 0.0 | 0.00 | 0.00 | 0.00 | 38 | 1010.7 |
| 20260502204137 | 60 | 292 | 0.9 | 0.0 | 0.00 | 0.00 | 0.00 | 38 | 1010.7 |
| 20260502204056 | 60 | 147 | 0.9 | 0.0 | 0.00 | 0.00 | 0.00 | 39 | 1010.7 |
| 20260502203936 | 60 | 274 | 0.9 | 0.0 | 0.00 | 0.00 | 0.00 | 39 | 1010.7 |
| 20260502203835 | 60 | 350 | 0.9 | 0.0 | 0.00 | 0.00 | 0.00 | 39 | 1010.7 |
| 20260502203741 | 60 | 324 | 0.9 | 0.0 | 0.00 | 0.00 | 0.00 | 39 | 1010.7 |
| 20260502203640 | 60 | 313 | 1.7 | 0.0 | 0.00 | 0.00 | 0.00 | 39 | 1010.7 |
| 20260502203542 | 60 | 314 | 1.7 | 0.0 | 0.00 | 0.00 | 0.00 | 39 | 1010.7 |
| 20260502203441 | 60 | 305 | 0.9 | 0.0 | 0.00 | 0.00 | 0.00 | 40 | 1010.7 |
| 20260502203341 | 60 | 332 | 0.9 | 0.0 | 0.00 | 0.00 | 0.00 | 39 | 1010.7 |
| 20260502203302 | 60 | 309 | 0.9 | 0.0 | 0.00 | 0.00 | 0.00 | 39 | 1010.7 |
| 20260502203127 | 60 | 14 | 0.9 | 0.0 | 0.00 | 0.00 | 0.00 | 39 | 1010.7 |
| 20260502203025 | 60 | 333 | 0.9 | 0.0 | 0.00 | 0.00 | 0.00 | 39 | 1010.7 |
| 20260502202945 | 60 | 338 | 0.9 | 0.0 | 0.00 | 0.00 | 0.00 | 39 | 1010.7 |
| 20260502202824 | 60 | 339 | 0.9 | 0.0 | 0.00 | 0.00 | 0.00 | 39 | 1010.9 |
| 20260502202728 | 60 | 355 | 0.9 | 0.0 | 0.00 | 0.00 | 0.00 | 39 | 1010.9 |
| 20260502202648 | 60 | 308 | 0.9 | 0.0 | 0.00 | 0.00 | 0.00 | 39 | 1010.9 |
| 20260502202529 | 60 | 9 | 0.9 | 0.0 | 0.00 | 0.00 | 0.00 | 39 | 1010.9 |
| 20260502202430 | 60 | 18 | 0.9 | 0.0 | 0.00 | 0.00 | 0.00 | 39 | 1010.9 |
| 20260502202332 | 60 | 318 | 0.9 | 0.0 | 0.00 | 0.00 | 0.00 | 38 | 1010.9 |
| 20260502202230 | 60 | 327 | 0.9 | 0.0 | 0.00 | 0.00 | 0.00 | 39 | 1010.9 |
| 20260502202134 | 60 | 345 | 0.9 | 0.0 | 0.00 | 0.00 | 0.00 | 39 | 1010.9 |
| 20260502202032 | 60 | 355 | 0.9 | 0.0 | 0.00 | 0.00 | 0.00 | 39 | 1010.9 |
| 20260502201932 | 60 | 317 | 0.0 | 0.0 | 0.00 | 0.00 | 0.00 | 39 | 1010.9 |
| 20260502201831 | 60 | 307 | 0.0 | 0.0 | 0.00 | 0.00 | 0.00 | 39 | 1010.9 |
| 20260502201736 | 60 | 338 | 0.9 | 0.0 | 0.00 | 0.00 | 0.00 | 38 | 1010.9 |
| 20260502201636 | 60 | 37 | 0.9 | 0.0 | 0.00 | 0.00 | 0.00 | 39 | 1010.9 |
| 20260502201540 | 60 | 355 | 0.9 | 0.0 | 0.00 | 0.00 | 0.00 | 38 | 1010.9 |
| 20260502201440 | 60 | 355 | 0.9 | 0.0 | 0.00 | 0.00 | 0.00 | 39 | 1010.9 |
| 20260502201342 | 60 | 333 | 1.7 | 0.0 | 0.00 | 0.00 | 0.00 | 39 | 1011.1 |
| 20260502201243 | 60 | 333 | 1.7 | 0.0 | 0.00 | 0.00 | 0.00 | 39 | 1011.1 |
| 20260502201129 | 60 | 345 | 1.7 | 0.0 | 0.00 | 0.00 | 0.00 | 38 | 1011.1 |
| 20260502201048 | 60 | 340 | 1.7 | 0.0 | 0.00 | 0.00 | 0.00 | 38 | 1011.1 |
| 20260502200930 | 60 | 340 | 2.6 | 0.0 | 0.00 | 0.00 | 0.00 | 38 | 1011.1 |
| 20260502200830 | 60 | 5 | 2.6 | 0.0 | 0.00 | 0.00 | 0.00 | 38 | 1011.1 |
| 20260502200731 | 60 | 336 | 2.6 | 0.0 | 0.00 | 0.00 | 0.00 | 37 | 1011.1 |
| 20260502200628 | 60 | 47 | 2.6 | 0.0 | 0.00 | 0.00 | 0.00 | 37 | 1011.1 |
| 20260502200534 | 61 | 3 | 2.6 | 0.0 | 0.00 | 0.00 | 0.00 | 37 | 1011.1 |
| 20260502200435 | 61 | 7 | 2.6 | 0.0 | 0.00 | 0.00 | 0.00 | 38 | 1011.1 |
| 20260502200336 | 61 | 359 | 1.7 | 0.0 | 0.00 | 0.00 | 0.00 | 38 | 1011.1 |
| 20260502200234 | 61 | 2 | 1.7 | 0.0 | 0.00 | 0.00 | 0.00 | 40 | 1011.1 |
| 20260502200155 | 61 | 340 | 1.7 | 0.0 | 0.00 | 0.00 | 0.00 | 38 | 1011.1 |
| 20260502200057 | 61 | 335 | 1.7 | 0.0 | 0.00 | 0.00 | 0.00 | 38 | 1011.1 |
| 20260502195939 | 61 | 350 | 1.7 | 0.0 | 0.00 | 0.00 | 0.00 | 37 | 1011.1 |
| 20260502195837 | 61 | 359 | 1.7 | 0.0 | 0.00 | 0.00 | 0.00 | 37 | 1011.2 |
| 20260502195742 | 61 | 321 | 1.7 | 0.0 | 0.00 | 0.00 | 0.00 | 37 | 1011.2 |
| 20260502195639 | 61 | 321 | 1.7 | 0.0 | 0.00 | 0.00 | 0.00 | 36 | 1011.2 |
| 20260502195541 | 61 | 305 | 1.7 | 0.0 | 0.00 | 0.00 | 0.00 | 37 | 1011.2 |
| 20260502195442 | 61 | 305 | 1.7 | 0.0 | 0.00 | 0.00 | 0.00 | 37 | 1011.2 |
| 20260502195400 | 61 | 345 | 1.7 | 0.0 | 0.00 | 0.00 | 0.00 | 37 | 1011.2 |
| 20260502195300 | 61 | 345 | 1.7 | 0.0 | 0.00 | 0.00 | 0.00 | 36 | 1011.2 |
| 20260502195141 | 61 | 319 | 1.7 | 0.0 | 0.00 | 0.00 | 0.00 | 37 | 1011.2 |
| 20260502195039 | 61 | 355 | 0.9 | 0.0 | 0.00 | 0.00 | 0.00 | 37 | 1011.2 |
| 20260502194924 | 61 | 335 | 0.9 | 0.0 | 0.00 | 0.00 | 0.00 | 36 | 1011.2 |
| 20260502194825 | 61 | 9 | 0.9 | 0.0 | 0.00 | 0.00 | 0.00 | 36 | 1011.2 |
| 20260502194726 | 61 | 22 | 0.9 | 0.0 | 0.00 | 0.00 | 0.00 | 36 | 1011.2 |
| 20260502194627 | 60 | 29 | 0.9 | 0.0 | 0.00 | 0.00 | 0.00 | 36 | 1011.2 |
| 20260502194530 | 60 | 28 | 0.9 | 0.0 | 0.00 | 0.00 | 0.00 | 36 | 1011.2 |
| 20260502194426 | 60 | 360 | 0.9 | 0.0 | 0.00 | 0.00 | 0.00 | 36 | 1011.2 |
| 20260502194332 | 60 | 360 | 1.7 | 0.0 | 0.00 | 0.00 | 0.00 | 35 | 1011.6 |
| 20260502194229 | 60 | 19 | 1.7 | 0.0 | 0.00 | 0.00 | 0.00 | 36 | 1011.6 |
| 20260502194131 | 60 | 24 | 0.9 | 0.0 | 0.00 | 0.00 | 0.00 | 36 | 1011.6 |
| 20260502194030 | 60 | 24 | 0.9 | 0.0 | 0.00 | 0.00 | 0.00 | 37 | 1011.6 |
| 20260502193932 | 60 | 24 | 0.9 | 0.0 | 0.00 | 0.00 | 0.00 | 37 | 1011.6 |
| 20260502193830 | 60 | 24 | 0.9 | 0.0 | 0.00 | 0.00 | 0.00 | 38 | 1011.6 |
| 20260502193736 | 60 | 328 | 0.9 | 0.0 | 0.00 | 0.00 | 0.00 | 37 | 1011.6 |
| 20260502193633 | 60 | 6 | 0.9 | 0.0 | 0.00 | 0.00 | 0.00 | 37 | 1011.6 |
| 20260502193535 | 60 | 4 | 0.9 | 0.0 | 0.00 | 0.00 | 0.00 | 38 | 1011.6 |
| 20260502193454 | 60 | 355 | 0.9 | 0.0 | 0.00 | 0.00 | 0.00 | 37 | 1011.6 |
| 20260502193337 | 60 | 338 | 0.0 | 0.0 | 0.00 | 0.00 | 0.00 | 38 | 1011.6 |
| 20260502193240 | 60 | 19 | 0.0 | 0.0 | 0.00 | 0.00 | 0.00 | 38 | 1011.6 |
| 20260502193145 | 60 | 32 | 0.0 | 0.0 | 0.00 | 0.00 | 0.00 | 37 | 1011.6 |
| 20260502193027 | 59 | 308 | 0.9 | 0.0 | 0.00 | 0.00 | 0.00 | 37 | 1011.6 |
| 20260502192927 | 59 | 311 | 0.9 | 0.0 | 0.00 | 0.00 | 0.00 | 38 | 1011.6 |
| 20260502192826 | 60 | 311 | 0.9 | 0.0 | 0.00 | 0.00 | 0.00 | 38 | 1011.7 |